[{"header": {"dx": 0.06612293990616946, "dy": 0.0552356325346848, "nx": 98, "ny": 59, "la1": 35.046912555036876, "la2": 31.78801023549047, "lo1": -121.43107172385933, "lo2": -114.95102361305473, "refTime": "2026041006", "parameterCategory": 1, "parameterNumber": 2}, "data": [1.79, 1.79, 1.79, 1.79, 1.79, 1.79, 1.34, 1.34, 0.89, 0.89, 0.89, 0.89, 0.89, 0.89, 0.89, 0.45, 0.89, -0.89, 1.34, 1.34, -0.0, 1.49, 2.84, 4.22, 4.8, 5.34, 6.28, 6.4, 6.64, 6.7, 6.32, 6.06, 3.79, 0.32, -1.58, -2.23, -1.26, -0.8, 0.0, 0.0, 0.65, 1.49, 2.6, 4.0, 6.4, 8.0, 9.27, 9.2, 6.55, 4.4, 5.43, 6.06, 6.39, 6.01, 5.59, 5.21, 5.94, 6.95, 7.64, 8.68, 7.69, 6.08, 3.72, 2.6, 2.88, 4.65, 6.01, 7.02, 8.32, 9.9, 10.4, 10.15, 10.01, 8.67, 8.82, 9.33, 10.75, 13.09, 10.16, 0.45, -2.68, -2.6, -2.23, -2.21, -1.4, 0.0, 0.71, 1.58, 3.83, 6.94, 8.63, 9.65, 9.9, 10.28, 10.28, 9.9, 9.27, 9.2, 2.24, 1.79, 1.79, 1.79, 1.79, 1.79, 1.34, 1.34, 0.89, 0.89, 0.89, 0.89, 0.89, 0.45, 1.34, 0.89, 0.89, -1.34, -1.34, -0.89, -0.0, 1.26, 2.21, 3.93, 3.83, 4.4, 4.66, 4.4, 4.46, 4.11, 4.29, 3.91, 2.12, -0.59, -3.58, -3.13, -1.79, -0.89, 0.0, 0.0, 0.0, 1.4, 2.95, 5.37, 7.02, 8.68, 8.0, 5.31, 4.4, 5.43, 6.44, 6.44, 6.06, 5.37, 5.0, 5.59, 5.94, 6.95, 8.32, 8.68, 8.3, 6.08, 3.47, 2.47, 3.0, 4.56, 6.32, 7.02, 8.32, 9.9, 10.48, 10.15, 9.49, 8.82, 8.4, 8.91, 10.75, 13.09, 10.16, 0.45, -2.68, -2.6, -2.23, -2.21, -1.4, 0.0, 0.71, 1.58, 3.83, 6.94, 8.63, 9.65, 9.9, 10.28, 10.28, 9.9, 9.27, 9.2, 2.24, 2.24, 1.79, 1.79, 1.79, 1.79, 1.34, 1.34, 0.89, 0.89, 0.89, 0.89, 0.89, 0.89, 0.45, 0.45, 0.45, -0.95, -1.26, -0.63, -0.89, 0.0, 0.95, 1.9, 4.29, 4.84, 3.84, 2.86, 2.23, 1.49, 0.66, 0.69, 0.71, -0.0, -0.65, -2.12, -2.12, -0.89, 0.0, 0.0, 0.61, 2.29, 4.83, 6.32, 6.7, 5.6, 4.02, 4.46, 5.43, 6.08, 6.08, 6.08, 5.09, 4.65, 4.71, 5.3, 6.32, 7.35, 8.32, 8.93, 8.3, 5.43, 3.11, 2.51, 3.69, 4.71, 6.14, 7.18, 8.6, 9.27, 10.9, 11.2, 10.43, 8.91, 7.89, 8.36, 10.62, 13.96, 11.54, 2.24, -1.79, -2.12, -1.9, -3.16, -2.51, -1.33, 0.0, 1.74, 4.46, 8.06, 10.28, 10.29, 9.92, 9.92, 9.66, 9.3, 8.3, 8.24, 2.24, 2.24, 1.79, 1.79, 1.79, 1.79, 1.34, 1.34, 1.34, 0.89, 0.89, 0.89, 0.89, 0.45, 0.45, 0.89, 0.89, 0.0, -1.58, -1.6, -1.34, -0.89, 0.45, -0.0, 1.61, 4.11, 4.43, 3.84, 1.9, -0.0, -0.65, -0.66, -0.0, 0.79, 1.6, 1.26, -0.0, 0.0, 0.0, 0.65, 1.41, 2.98, 3.84, 4.24, 3.58, 3.32, 4.19, 4.81, 5.43, 5.82, 5.36, 4.81, 4.43, 4.65, 4.83, 5.59, 6.32, 7.02, 8.32, 9.27, 7.69, 4.74, 2.2, 2.26, 3.06, 4.71, 5.52, 6.81, 8.49, 9.83, 10.9, 11.5, 11.34, 10.1, 8.38, 8.05, 9.36, 13.41, 13.39, 3.13, -1.2, -1.7, -1.49, -3.16, -4.19, -2.15, 0.0, 2.3, 5.3, 9.27, 10.91, 10.28, 9.27, 9.3, 8.68, 7.67, 6.64, 6.94, 2.24, 2.24, 2.24, 1.79, 1.79, 1.79, 1.79, 1.34, 1.34, 1.34, 0.89, 0.89, 0.89, 0.89, 0.0, 0.0, 0.0, 0.0, -1.0, -1.24, -1.6, -0.89, 0.45, -0.0, 0.57, 1.49, 3.79, 4.89, 3.16, 1.2, -0.0, -1.2, -0.65, -0.0, 1.58, 2.6, 2.12, 1.79, 1.2, 0.7, 1.24, 2.24, 2.8, 3.45, 3.49, 3.79, 3.72, 4.43, 4.81, 4.81, 3.79, 3.72, 3.9, 4.95, 5.3, 6.32, 6.68, 7.06, 8.32, 9.27, 7.07, 3.22, 1.52, 2.44, 3.25, 4.5, 5.41, 5.95, 7.73, 9.48, 11.54, 12.89, 12.5, 12.29, 10.75, 8.05, 7.28, 9.58, 10.73, 4.47, -0.57, -1.24, -1.49, -3.49, -4.81, -2.3, 0.81, 4.83, 7.52, 9.48, 9.9, 9.3, 8.65, 7.64, 6.08, 5.05, 5.86, 6.79, 2.68, 2.24, 2.24, 2.24, 1.79, 1.79, 1.79, 1.79, 1.34, 1.34, 0.95, 0.63, 1.34, 1.34, 0.0, 0.0, 0.0, 0.0, 0.0, -0.65, -1.2, -0.71, 0.0, 0.45, 1.2, 1.6, 2.23, 3.2, 3.93, 3.58, 1.88, -0.0, -0.0, -0.0, 1.79, 2.68, 3.13, 3.13, 1.9, 0.0, -0.63, 0.71, 2.15, 2.79, 3.72, 4.03, 4.46, 4.56, 4.36, 3.48, 2.79, 3.72, 4.65, 5.37, 5.37, 6.06, 6.08, 6.44, 8.24, 9.6, 6.07, 1.55, 0.79, 1.47, 3.02, 4.5, 5.52, 5.64, 6.42, 8.93, 10.91, 12.08, 12.51, 13.99, 14.68, 12.58, 7.12, 4.4, 4.41, 3.13, -0.54, -0.7, -1.33, -3.07, -3.64, -0.79, 3.21, 7.73, 9.1, 8.76, 7.82, 8.6, 8.6, 5.43, 2.15, 2.8, 6.28, 7.47, 2.68, 2.68, 2.24, 2.24, 2.24, 2.24, 1.79, 1.79, 1.6, 1.6, 1.2, 0.95, 0.95, 0.95, 0.0, 0.0, 0.0, 0.0, 0.79, 0.0, 0.0, 0.0, 0.0, 0.71, 1.58, 2.12, 2.12, 3.13, 3.04, 2.5, 3.16, 1.88, 1.24, 1.6, 2.24, 2.68, 2.68, 3.58, 3.04, 0.0, -2.0, -1.26, -0.0, 0.85, 2.0, 3.09, 4.5, 4.71, 4.6, 4.46, 4.47, 3.64, 5.37, 5.37, 5.43, 5.46, 5.43, 5.43, 7.2, 7.89, 3.49, 0.73, 0.74, 1.52, 2.44, 4.5, 5.64, 5.3, 6.06, 8.3, 10.15, 10.68, 11.3, 13.99, 15.41, 15.84, 12.74, 4.92, 3.13, 5.31, 0.76, 0.0, -0.74, -1.52, -0.76, 1.43, 5.4, 7.54, 8.37, 7.44, 7.09, 8.09, 5.69, 1.2, 0.89, 2.8, 6.94, 8.0, 2.68, 2.68, 2.68, 2.24, 2.24, 2.24, 2.24, 2.12, 1.7, 1.7, 1.26, 0.8, 0.0, 1.26, 1.9, 1.0, 0.85, 0.99, 1.6, 1.24, 1.86, 2.12, 1.86, 1.2, 1.88, 2.21, 2.21, 2.23, 0.89, 1.26, 2.6, 2.8, 2.6, 2.68, 3.13, 3.07, 3.07, 3.97, 4.02, 1.34, -1.34, -2.24, -2.24, -0.63, -0.0, 1.08, 2.18, 4.71, 5.41, 6.17, 3.9, 4.65, 5.3, 6.06, 6.08, 5.46, 5.05, 5.05, 6.94, 6.4, 2.84, 0.66, -0.0, 1.55, 2.51, 4.03, 6.01, 6.07, 5.34, 6.98, 9.26, 10.16, 11.08, 12.94, 13.84, 14.15, 14.21, 11.45, 9.26, 10.73, 8.24, 1.36, 0.0, 0.0, 0.71, 3.46, 5.77, 6.87, 7.44, 7.18, 6.17, 4.29, 0.63, -0.0, 1.34, 3.07, 6.7, 7.67, 3.13, 2.68, 2.68, 2.68, 2.68, 2.24, 2.24, 2.17, 2.12, 1.86, 1.86, 1.24, 0.0, 0.99, 0.99, 0.99, 0.87, 0.87, 0.87, 1.26, 1.7, 2.68, 3.13, 3.04, 2.53, 2.53, 2.53, 0.8, 0.45, 1.34, 3.04, 3.51, 3.04, 2.68, 3.13, 3.58, 3.47, 3.6, 3.51, 0.89, -0.89, -1.79, -1.79, -0.89, -0.0, -0.0, -0.0, 3.0, 5.49, 6.14, 6.17, 5.21, 5.59, 6.01, 6.06, 5.43, 5.46, 5.82, 6.64, 6.4, 3.79, 1.6, 1.6, 2.35, 3.0, 4.65, 6.06, 6.07, 4.87, 6.26, 7.6, 9.39, 11.18, 11.62, 12.07, 11.62, 11.6, 11.96, 12.87, 14.24, 13.84, 2.8, 0.0, 0.67, 2.06, 3.61, 4.96, 6.42, 6.28, 5.69, 3.07, 0.63, -0.6, 0.0, 2.4, 5.46, 6.7, 6.7, 3.13, 3.13, 2.68, 2.68, 2.68, 2.68, 2.6, 2.6, 2.4, 2.4, 2.15, 2.21, 1.61, 1.13, 0.98, 0.88, 0.88, 0.73, 0.0, 0.0, 0.76, 1.4, 2.53, 3.22, 2.84, 2.68, 2.15, 0.85, 0.0, 2.21, 3.58, 3.22, 1.86, 1.34, 1.79, 3.13, 5.36, 4.02, 2.24, 0.45, -0.95, -0.45, 0.0, 0.45, -0.0, 0.54, 0.65, 1.4, 2.79, 3.79, 4.37, 5.38, 5.86, 5.94, 6.01, 5.3, 5.37, 6.08, 6.08, 6.07, 3.79, 3.15, 2.97, 2.99, 2.99, 4.56, 6.39, 6.32, 4.73, 4.47, 6.22, 8.46, 9.81, 10.28, 10.73, 11.18, 10.26, 9.72, 10.7, 12.96, 15.63, 12.52, 0.67, 0.69, 1.36, 2.72, 3.91, 4.67, 5.06, 3.48, 1.9, 0.89, 0.32, 1.24, 3.49, 6.7, 7.02, 6.01, 3.13, 3.13, 3.13, 2.68, 2.68, 2.68, 2.63, 2.63, 2.4, 2.4, 2.5, 2.53, 2.79, 2.51, 2.0, 1.66, 1.49, 1.12, 1.1, 1.16, 0.79, 1.55, 2.35, 2.6, 3.2, 1.6, 1.6, 1.6, 1.33, 2.84, 3.58, 2.5, 0.0, 0.45, 0.89, 3.04, 4.02, 3.04, 1.2, 0.89, 0.45, 0.63, 1.26, 3.2, 2.53, 1.2, 0.76, 0.61, 1.16, 1.47, 2.18, 4.0, 4.83, 5.38, 5.38, 5.38, 5.86, 6.32, 6.08, 4.74, 3.06, 3.16, 3.25, 3.11, 3.02, 4.8, 5.52, 5.94, 5.46, 4.24, 5.77, 7.12, 8.05, 8.49, 9.83, 11.15, 10.19, 8.14, 7.89, 9.54, 11.54, 12.5, 6.71, 0.61, 1.33, 2.0, 2.88, 3.64, 3.72, 2.15, 1.88, 1.88, 1.4, 2.15, 4.65, 6.95, 6.95, 5.3, 3.09, 3.13, 3.13, 3.13, 3.13, 3.13, 3.07, 3.07, 2.91, 2.91, 2.68, 3.07, 3.14, 3.72, 3.72, 3.43, 3.43, 3.2, 2.84, 2.82, 2.84, 3.2, 2.6, 3.79, 3.35, 3.72, 4.4, 3.35, 3.07, 3.32, 3.95, 3.13, 0.6, 0.45, 1.6, 2.17, 1.7, 0.6, -0.0, 0.45, 0.6, 0.54, 0.65, 2.23, 1.41, 0.61, -0.0, -0.0, -0.0, -0.0, 0.78, 1.55, 2.99, 3.15, 3.7, 4.5, 5.28, 6.95, 6.07, 2.98, 1.54, 3.07, 3.16, 1.56, 1.54, 3.04, 5.48, 5.99, 6.05, 6.32, 6.63, 8.11, 8.67, 8.8, 9.39, 10.26, 8.82, 4.66, 4.0, 4.4, 3.51, 6.66, 7.45, 1.26, 0.71, 2.07, 2.98, 2.73, 2.0, 2.07, 2.66, 2.04, 2.29, 3.11, 5.59, 7.64, 6.32, 3.9, 3.53, 3.13, 3.13, 3.13, 3.13, 3.13, 3.09, 3.53, 3.39, 3.39, 3.07, 3.07, 3.35, 3.72, 4.27, 4.4, 4.4, 4.8, 5.31, 5.4, 5.99, 6.16, 6.68, 6.71, 6.68, 7.13, 7.51, 7.97, 7.52, 7.07, 4.87, 3.97, 2.8, 2.24, 1.79, 0.63, -0.0, -0.0, -0.63, -0.0, 0.57, 0.71, 0.54, 0.57, -0.0, -0.0, -0.0, -0.0, -0.0, -0.0, -0.59, -0.0, 0.61, 0.61, 0.76, 0.76, 3.22, 7.81, 6.94, 1.33, -0.0, 1.5, 2.31, -0.0, -0.0, -0.0, 2.1, 4.81, 5.51, 6.87, 8.46, 9.23, 9.9, 9.49, 9.81, 8.91, 4.02, 1.79, 1.79, 1.34, 1.34, 2.68, 7.15, 5.81, 1.26, 1.9, 3.48, 2.15, 1.88, 2.15, 2.73, 2.04, 1.98, 3.69, 6.14, 7.97, 6.06, 3.07, 3.53, 3.53, 3.58, 3.58, 3.58, 3.58, 3.58, 3.53, 3.53, 3.39, 3.82, 3.6, 3.6, 3.88, 4.27, 4.4, 4.9, 5.4, 5.88, 6.51, 7.51, 8.03, 8.94, 9.39, 9.39, 9.32, 9.77, 10.14, 10.04, 9.57, 9.32, 7.11, 5.81, 2.24, 1.34, 0.6, 0.6, 0.6, -0.0, 0.63, 0.63, 0.63, 0.63, 1.2, -0.0, -0.0, -0.0, -0.0, -0.8, -1.24, -1.0, -0.63, 0.0, 0.0, 0.45, -0.89, -0.0, 6.0, 10.04, 1.16, -2.35, -0.0, -0.0, -0.0, -1.47, -1.52, -0.0, 1.4, 4.18, 6.05, 7.73, 9.56, 10.28, 9.83, 9.36, 6.71, 2.8, 1.9, 3.22, 3.2, 2.24, 3.95, 6.55, 6.55, 2.6, 2.8, 3.74, 2.23, 1.86, 2.8, 2.84, 1.84, 2.04, 3.91, 6.23, 6.95, 5.43, 3.16, 3.53, 3.53, 3.53, 3.58, 3.58, 3.58, 3.58, 3.54, 3.98, 3.87, 3.87, 3.7, 3.7, 4.11, 4.27, 4.4, 4.9, 5.4, 6.04, 6.94, 7.51, 8.47, 9.37, 9.83, 10.28, 10.27, 10.71, 11.11, 11.57, 11.49, 11.57, 9.82, 7.6, 4.92, 3.58, 2.8, 2.84, 1.24, 2.53, 1.2, 1.34, 2.68, 2.68, 2.24, 1.4, 1.13, -0.0, -0.0, -1.4, -0.95, -0.63, 0.45, 0.0, 0.45, 0.45, -0.89, 0.0, 3.82, 9.36, 4.11, -1.49, -0.85, -0.76, -0.76, -0.87, -1.8, -1.4, -0.0, 1.19, 4.47, 6.32, 8.93, 10.52, 10.16, 8.05, 4.24, 3.07, 4.65, 6.08, 6.64, 6.07, 5.36, 5.32, 4.73, 3.84, 4.8, 4.66, 2.6, 2.6, 3.32, 4.15, 3.14, 2.73, 3.64, 5.3, 4.74, 3.79, 3.79, 3.98, 3.54, 3.54, 3.58, 3.58, 4.02, 4.02, 4.02, 3.98, 3.98, 3.87, 3.87, 4.11, 4.11, 4.11, 4.6, 5.09, 5.57, 6.04, 6.51, 7.51, 8.41, 8.92, 9.83, 10.28, 10.73, 10.71, 11.16, 11.61, 11.61, 11.61, 11.16, 9.39, 7.15, 4.47, 1.6, 1.49, 2.15, 4.4, 4.02, 1.79, 1.79, 2.68, 1.9, 1.9, -0.0, -0.0, -0.0, -0.0, -0.0, -1.79, 0.0, 0.45, 0.89, 0.89, 0.45, 0.8, 2.6, 4.02, 1.74, -0.0, -0.0, -0.0, -0.0, -0.6, -1.6, -1.6, -0.0, 0.87, 3.91, 6.54, 8.91, 10.28, 9.81, 5.32, 2.53, 4.12, 6.88, 7.64, 7.68, 7.69, 7.6, 6.28, 4.02, 2.23, 2.2, 4.46, 3.83, 3.45, 3.83, 4.8, 2.84, 3.16, 4.73, 5.72, 4.75, 4.12, 4.12, 3.98, 3.98, 3.98, 3.98, 4.02, 4.02, 4.02, 4.02, 3.98, 3.98, 3.98, 4.3, 4.3, 4.3, 4.19, 4.6, 5.09, 5.51, 5.57, 6.47, 7.06, 7.97, 8.47, 8.94, 9.83, 10.73, 11.18, 11.18, 11.62, 11.62, 11.62, 11.62, 10.28, 8.05, 2.24, 1.7, 1.86, 3.39, 4.02, 5.36, 3.39, 0.89, 1.79, 0.63, 1.58, -0.0, -0.0, -0.0, -0.0, -0.0, -0.0, -0.0, 1.58, 2.8, 2.8, 3.58, 4.02, 3.58, 2.84, 1.41, 1.27, 2.53, 2.53, 2.8, 1.9, -0.0, 0.45, -0.63, 0.6, 5.7, 10.28, 9.6, 9.74, 7.28, 2.68, 0.72, 3.85, 8.37, 9.85, 9.27, 9.3, 8.93, 8.63, 6.8, 3.04, 0.57, 2.2, 2.3, 3.79, 5.46, 4.73, 2.86, 2.5, 4.12, 5.72, 5.09, 4.09, 4.09, 3.98, 3.98, 3.98, 3.98, 4.02, 4.02, 4.02, 4.47, 4.47, 4.44, 4.44, 4.44, 4.34, 4.34, 4.34, 4.77, 5.09, 5.09, 5.7, 6.16, 7.06, 7.51, 7.97, 8.49, 9.39, 10.28, 10.71, 10.71, 11.16, 11.57, 11.57, 11.16, 10.73, 9.39, 7.13, 3.13, 2.24, 3.47, 5.7, 3.04, 1.2, 0.0, 0.0, 0.45, 1.9, 1.6, 1.13, 1.6, 1.4, 1.4, 1.6, 2.53, 2.53, 2.84, 3.35, 3.82, 4.24, 3.48, 2.48, 2.23, 2.84, 3.35, 3.82, 3.82, 3.39, 1.26, 0.6, 0.0, 0.85, 6.7, 12.08, 10.75, 8.4, 4.24, 2.21, 1.63, 4.83, 9.23, 11.9, 11.5, 10.23, 9.74, 9.33, 6.11, 1.79, 0.0, 0.0, 1.66, 2.98, 3.79, 3.84, 2.86, 2.84, 4.11, 5.46, 4.46, 4.46, 4.46, 3.87, 3.98, 3.98, 3.98, 4.43, 4.47, 4.47, 4.47, 4.47, 4.47, 4.44, 4.44, 4.44, 4.34, 4.34, 5.09, 4.77, 4.77, 4.89, 5.78, 7.06, 7.4, 6.94, 6.98, 8.01, 8.87, 8.41, 8.36, 8.36, 9.23, 9.68, 9.77, 9.82, 9.39, 8.49, 7.13, 6.51, 6.51, 5.86, 3.6, 1.7, 0.89, 1.34, 2.8, 2.84, 2.84, 2.48, 2.84, 2.84, 2.53, 2.53, 2.84, 2.84, 2.84, 3.16, 3.48, 4.09, 4.09, 4.09, 4.09, 4.24, 4.24, 3.82, 1.7, 1.26, -0.0, -0.0, 0.89, 2.84, 6.7, 10.68, 13.32, 15.01, 13.05, 10.01, 6.94, 6.07, 9.36, 11.98, 12.77, 11.15, 10.73, 8.94, 7.15, 4.02, 1.24, 0.0, 0.57, 0.65, 1.0, 1.9, 2.86, 3.79, 3.72, 4.11, 4.46, 3.84, 3.84, 4.3, 4.3, 4.43, 4.44, 4.44, 4.44, 4.47, 4.47, 4.47, 4.47, 4.47, 4.44, 4.44, 4.88, 4.77, 4.77, 4.77, 4.34, 4.85, 5.75, 6.98, 6.3, 5.6, 6.4, 7.35, 7.71, 7.21, 7.69, 8.17, 7.87, 7.97, 8.03, 8.47, 8.49, 8.49, 8.03, 7.97, 7.87, 7.84, 7.06, 5.78, 4.92, 4.92, 5.24, 5.09, 4.8, 4.4, 4.4, 4.09, 3.35, 2.53, 2.53, 2.84, 2.48, 1.49, 2.21, 4.43, 2.5, 2.12, 4.34, 4.02, 4.02, 3.58, 3.13, -0.0, -0.71, -0.57, -0.0, 3.47, 6.98, 10.25, 14.68, 18.88, 19.73, 16.97, 13.21, 10.15, 9.9, 12.37, 12.77, 12.42, 11.6, 10.16, 7.89, 5.31, 3.07, 1.79, 2.12, 1.34, 1.34, 1.86, 3.83, 4.81, 3.48, 3.07, 3.79, 4.19, 4.19, 4.34, 4.34, 4.34, 4.44, 4.44, 4.44, 4.44, 4.47, 4.92, 4.92, 4.92, 4.92, 4.88, 4.89, 4.89, 5.24, 4.8, 4.6, 4.8, 6.28, 6.7, 5.4, 5.31, 6.1, 7.31, 8.48, 8.77, 8.33, 7.97, 8.03, 8.05, 8.05, 8.05, 8.49, 8.49, 8.49, 8.49, 8.03, 8.03, 7.58, 7.13, 6.71, 6.71, 6.61, 6.04, 5.94, 4.98, 4.8, 4.8, 4.4, 3.82, 3.2, 2.53, 2.23, 2.73, 1.88, 3.35, 3.48, 4.4, 3.58, 3.58, 3.58, 3.13, 1.58, -0.0, -0.57, -0.71, -0.0, 2.4, 4.95, 7.27, 11.9, 17.38, 18.82, 16.92, 14.39, 10.94, 10.6, 10.81, 11.88, 12.8, 12.74, 11.52, 8.91, 7.15, 4.47, 3.07, 3.74, 6.11, 4.43, 4.41, 5.05, 5.43, 4.09, 2.51, 2.84, 3.14, 3.14, 4.34, 4.34, 4.34, 4.34, 4.44, 4.88, 4.88, 4.88, 4.92, 4.92, 4.92, 4.92, 4.92, 4.89, 5.33, 5.24, 5.24, 5.51, 5.81, 6.51, 6.79, 5.99, 5.57, 6.3, 7.69, 8.64, 9.23, 9.32, 8.92, 8.94, 8.94, 8.94, 8.94, 8.94, 8.94, 8.94, 8.94, 8.94, 8.49, 8.05, 7.6, 7.15, 6.68, 6.61, 6.47, 5.81, 5.81, 5.2, 4.77, 4.77, 4.24, 3.39, 2.53, 1.27, 2.48, 2.4, 2.11, 3.0, 4.43, 2.68, 0.6, 0.6, 0.89, -0.0, -0.0, -0.76, -0.7, -0.0, -0.0, -0.0, 2.33, 8.91, 15.12, 16.54, 5.94, 7.03, 9.18, 9.1, 9.26, 9.23, 10.9, 11.99, 11.84, 10.7, 9.39, 7.6, 5.36, 4.92, 7.6, 8.49, 8.24, 6.8, 6.25, 5.05, 2.5, 1.9, 2.5, 2.5, 4.34, 4.34, 4.77, 4.77, 4.77, 4.88, 4.88, 4.89, 4.89, 4.92, 4.92, 4.92, 4.92, 5.36, 5.33, 5.34, 5.7, 5.7, 6.04, 6.36, 6.94, 6.94, 6.51, 6.94, 7.4, 8.33, 8.79, 9.32, 9.32, 9.37, 9.37, 9.39, 9.39, 9.39, 9.39, 9.39, 9.39, 9.39, 8.92, 8.47, 8.03, 7.13, 6.61, 6.6, 6.04, 5.4, 6.14, 4.77, 4.34, 4.77, 4.0, 3.35, 2.84, 1.27, 1.41, 1.19, -0.0, 1.47, 3.91, 2.23, 0.0, 0.0, 0.45, -0.0, -0.0, -0.73, -0.0, -0.0, -0.0, -0.76, -1.9, 2.23, 15.18, 10.08, 0.0, 0.0, 3.41, 6.24, 7.88, 8.43, 9.23, 10.9, 10.8, 10.52, 10.02, 8.82, 7.56, 6.98, 7.89, 8.91, 8.97, 6.8, 5.31, 3.07, 1.86, 1.86, 2.8, 2.8, 4.77, 4.77, 4.77, 4.77, 4.77, 4.77, 4.89, 4.89, 4.89, 4.92, 4.92, 5.36, 5.36, 5.36, 5.36, 5.78, 5.78, 6.14, 6.04, 6.47, 6.94, 6.94, 6.94, 7.4, 7.84, 8.3, 8.77, 8.87, 9.32, 9.32, 8.92, 9.37, 9.39, 9.39, 9.39, 9.39, 9.39, 9.37, 9.37, 8.87, 8.42, 7.51, 7.06, 6.61, 6.04, 5.7, 6.71, 5.36, 4.77, 4.8, 4.8, 4.4, 3.72, 2.84, 1.27, -0.0, -0.0, -0.0, 2.53, 4.98, 1.34, -0.95, -1.2, -0.7, -0.73, -0.0, -0.0, 1.14, -0.0, -0.71, -1.34, 10.7, 16.54, 16.01, 9.16, 0.95, 0.0, 2.17, 5.4, 5.72, 7.0, 8.58, 9.83, 9.84, 9.9, 8.63, 8.14, 7.6, 6.64, 5.31, 7.71, 3.82, 2.4, 1.26, 0.95, 1.86, 2.8, 2.8, 4.6, 4.6, 4.6, 4.77, 4.77, 4.77, 4.8, 4.89, 5.33, 5.33, 5.36, 5.36, 5.36, 5.36, 5.36, 5.78, 5.78, 6.16, 6.16, 6.61, 6.94, 6.94, 6.94, 7.4, 7.4, 7.87, 8.42, 8.87, 8.87, 8.87, 8.92, 8.92, 8.92, 9.39, 9.39, 9.39, 9.39, 9.39, 9.37, 9.32, 8.86, 7.97, 7.51, 7.06, 6.68, 6.68, 6.71, 6.23, 5.7, 6.16, 6.04, 6.36, 4.4, 3.35, 2.53, 1.13, -0.0, -0.0, 0.95, 3.95, 4.92, 0.8, -0.95, -0.7, -0.0, -0.0, -0.0, -0.0, -0.0, 0.0, 2.41, 8.4, 15.61, 17.27, 17.91, 15.18, 8.38, 2.91, 3.2, 4.8, 5.63, 7.69, 9.3, 9.8, 9.27, 7.69, 6.7, 5.69, 2.91, 1.9, 2.84, 3.82, 3.13, 1.7, 0.99, 1.58, 1.86, 1.86, 4.6, 4.6, 4.6, 4.6, 4.77, 4.8, 4.8, 5.24, 5.33, 5.33, 5.33, 5.36, 5.36, 5.36, 5.81, 5.81, 5.79, 6.23, 6.68, 6.61, 7.06, 6.94, 6.94, 6.97, 7.4, 7.87, 8.41, 8.42, 8.86, 8.86, 8.86, 8.92, 8.92, 8.92, 8.94, 8.94, 8.94, 9.39, 9.39, 9.37, 9.32, 8.86, 8.41, 7.58, 7.58, 7.15, 7.15, 6.68, 6.68, 6.61, 7.06, 6.6, 6.17, 4.34, 3.35, 2.53, 1.4, 1.58, 1.79, 2.24, 4.47, 4.92, 1.26, -0.0, -0.0, -0.0, -0.0, -0.0, -0.0, 0.63, 1.58, 6.8, 12.04, 16.97, 17.91, 17.9, 18.78, 14.6, 5.69, 3.15, 4.65, 6.95, 8.51, 9.13, 7.59, 7.06, 6.64, 4.4, 2.17, 1.2, 2.21, 6.64, 6.85, 3.58, 1.24, 0.0, 0.8, 0.8, 4.6, 4.6, 4.6, 4.66, 4.66, 4.8, 5.24, 5.24, 5.24, 5.33, 5.34, 5.36, 5.81, 5.81, 5.81, 5.81, 6.26, 6.23, 6.68, 6.68, 7.06, 7.06, 7.06, 7.06, 7.4, 7.51, 7.97, 8.42, 8.42, 8.42, 8.42, 8.47, 8.47, 8.47, 8.47, 8.47, 8.49, 8.49, 8.94, 8.94, 8.94, 8.94, 8.92, 8.47, 8.47, 8.05, 7.6, 7.15, 6.71, 6.68, 7.13, 7.13, 6.71, 5.36, 2.68, 2.12, 2.8, 1.9, 0.63, 0.45, 2.24, 4.92, 3.9, 1.4, -0.0, 0.79, 0.7, -0.0, -0.0, 1.2, 3.04, 5.75, 9.54, 12.49, 13.53, 15.1, 17.96, 17.97, 10.16, 2.31, 3.19, 5.9, 7.25, 7.73, 7.15, 7.61, 7.69, 4.4, 2.6, 1.86, 2.24, 4.02, 9.11, 6.21, 1.49, 0.0, 0.89, 0.89, 4.6, 4.6, 4.66, 5.09, 5.09, 5.09, 5.24, 5.24, 5.24, 5.34, 5.78, 5.78, 5.81, 5.81, 5.81, 5.81, 6.26, 6.26, 6.68, 6.68, 7.13, 7.06, 7.06, 7.06, 7.07, 7.51, 7.51, 7.97, 7.97, 8.03, 8.47, 8.47, 8.47, 8.47, 8.03, 8.03, 8.03, 8.47, 8.49, 8.49, 8.49, 8.49, 8.47, 8.47, 8.86, 8.86, 8.05, 7.15, 6.71, 6.71, 7.15, 7.15, 6.71, 6.26, 4.92, 2.24, 3.13, 2.24, 0.63, -0.0, 1.34, 3.13, 2.6, 1.2, 0.79, 1.23, 0.87, 0.8, 0.89, 1.34, 3.13, 6.07, 8.4, 8.82, 9.72, 13.39, 16.52, 16.54, 10.28, 1.49, 0.75, 4.74, 7.06, 7.19, 7.09, 7.15, 6.32, 4.0, 3.07, 3.13, 3.07, 4.24, 8.49, 8.84, 4.02, 1.79, 1.34, 1.34, 4.6, 4.6, 5.09, 5.09, 5.09, 5.09, 5.09, 5.24, 5.24, 5.26, 5.78, 5.78, 5.78, 5.81, 5.81, 6.26, 6.26, 6.26, 6.71, 6.68, 7.13, 7.13, 7.13, 7.13, 7.07, 7.13, 7.58, 7.58, 8.03, 8.03, 8.03, 8.03, 8.03, 8.03, 8.03, 8.03, 8.03, 8.03, 8.05, 8.05, 8.05, 8.05, 7.6, 7.6, 8.01, 8.3, 8.47, 7.06, 5.99, 6.61, 7.06, 7.06, 6.68, 6.23, 5.36, 4.47, 3.58, 2.68, 0.89, 0.45, 1.34, 2.24, 1.79, 0.71, -0.0, 0.73, 1.55, 1.4, 1.2, 1.34, 3.58, 7.11, 9.72, 9.74, 10.55, 13.76, 15.03, 13.57, 11.15, 3.07, 0.0, 2.87, 6.56, 7.1, 7.09, 6.28, 5.06, 3.84, 4.46, 4.46, 3.45, 3.32, 4.88, 8.49, 7.92, 5.2, 3.39, 3.39, 5.09, 5.09, 5.09, 5.09, 5.09, 5.09, 5.09, 5.24, 5.24, 5.7, 5.7, 5.78, 5.78, 5.81, 5.81, 6.26, 6.26, 6.26, 6.71, 6.71, 7.13, 7.13, 7.13, 7.13, 7.13, 7.13, 7.58, 7.58, 7.58, 8.03, 8.03, 8.03, 8.03, 8.03, 7.97, 8.03, 7.58, 7.58, 7.58, 7.6, 7.6, 7.6, 7.6, 6.71, 6.26, 8.01, 8.49, 6.61, 4.6, 4.11, 5.09, 5.57, 6.51, 6.16, 5.78, 4.89, 3.98, 3.53, 1.79, 1.34, 1.79, 2.17, 1.34, -0.0, -0.0, -0.0, -0.0, 1.74, 2.8, 2.6, 3.83, 6.55, 11.18, 13.32, 13.43, 14.13, 14.13, 11.53, 11.45, 8.94, 2.5, 1.79, 4.58, 7.1, 7.59, 6.28, 4.74, 4.43, 5.09, 4.12, 2.8, 2.68, 4.73, 7.15, 7.48, 7.56, 7.06, 7.06, 5.09, 5.09, 5.09, 5.09, 5.09, 5.09, 5.09, 5.09, 5.26, 5.7, 5.7, 5.7, 5.79, 6.23, 6.26, 6.26, 6.26, 6.26, 6.71, 6.71, 6.71, 7.15, 7.15, 7.13, 7.13, 7.13, 7.13, 7.58, 7.58, 8.03, 7.97, 7.97, 7.97, 7.97, 7.97, 7.52, 7.58, 7.58, 7.58, 7.58, 7.58, 7.6, 7.6, 7.15, 6.23, 7.89, 8.36, 6.68, 4.44, 3.98, 4.44, 4.8, 5.24, 5.57, 5.24, 4.88, 4.44, 3.98, 3.53, 1.79, 1.7, 1.7, 1.34, 0.6, -0.0, -0.0, -0.6, 0.95, 3.58, 5.7, 2.86, 2.54, 7.15, 14.29, 17.42, 16.44, 14.74, 11.53, 9.9, 13.05, 10.52, 4.36, 3.45, 5.4, 7.19, 7.33, 6.97, 5.38, 4.12, 2.91, 2.24, 2.8, 4.52, 6.64, 7.76, 7.98, 7.33, 7.33, 5.09, 5.09, 5.09, 5.09, 5.09, 5.09, 5.09, 5.09, 5.7, 5.7, 5.7, 5.7, 6.23, 6.23, 6.23, 6.26, 6.26, 6.26, 6.71, 6.71, 6.71, 6.71, 7.15, 7.15, 7.13, 7.13, 7.13, 7.13, 8.05, 7.13, 7.51, 7.51, 7.51, 7.51, 7.51, 7.51, 7.51, 7.13, 7.13, 7.13, 7.13, 7.13, 7.58, 7.58, 7.51, 7.74, 8.17, 7.58, 5.81, 5.36, 5.36, 5.36, 5.34, 4.89, 4.88, 4.34, 3.98, 3.98, 3.53, 3.09, 1.7, 1.79, 1.2, 0.95, 0.6, -0.0, -0.0, 0.0, 2.8, 5.94, 2.17, -0.0, 1.34, 10.73, 20.1, 21.33, 13.99, 7.9, 8.3, 12.25, 15.53, 11.75, 5.69, 5.1, 6.35, 6.97, 7.59, 7.17, 4.46, 3.51, 3.07, 4.24, 4.93, 6.64, 7.98, 8.06, 7.98, 7.98, 5.09, 5.09, 5.09, 5.09, 5.09, 5.09, 5.09, 5.09, 5.7, 5.7, 5.7, 5.7, 6.16, 6.23, 6.23, 6.23, 6.26, 6.71, 6.71, 6.71, 6.71, 6.71, 7.15, 7.15, 7.13, 7.13, 7.13, 7.13, 7.07, 8.01, 7.06, 7.06, 7.06, 7.07, 7.07, 7.07, 7.07, 7.06, 7.13, 7.13, 7.13, 7.13, 7.13, 7.58, 8.03, 7.97, 7.97, 7.13, 6.68, 6.23, 6.23, 6.26, 6.26, 5.78, 5.33, 4.92, 4.47, 3.53, 3.13, 3.13, 2.68, 1.2, 1.9, 0.95, 0.6, -0.0, -0.0, 0.45, 1.86, 3.47, 2.6, 0.71, 0.89, 7.47, 18.62, 25.02, 14.11, 1.33, 1.13, 7.32, 12.72, 14.59, 12.44, 9.15, 8.72, 8.51, 8.91, 8.15, 6.28, 4.02, 4.87, 4.93, 5.86, 7.28, 8.67, 8.4, 8.06, 8.06, 5.09, 5.09, 5.09, 5.09, 5.09, 5.09, 5.09, 5.09, 5.57, 5.7, 5.7, 5.7, 6.16, 6.23, 6.23, 6.23, 6.23, 6.71, 6.71, 6.71, 6.71, 6.71, 7.15, 7.15, 7.13, 7.13, 7.13, 7.07, 7.51, 7.52, 7.51, 7.06, 7.06, 7.06, 7.06, 7.06, 7.06, 7.06, 6.61, 6.68, 6.68, 6.68, 7.13, 7.13, 8.03, 8.03, 7.58, 7.13, 6.68, 6.68, 6.6, 6.6, 6.68, 6.23, 6.23, 5.36, 4.92, 4.47, 3.58, 3.13, 2.68, 2.4, 1.9, 1.9, 0.6, 0.63, -0.0, -0.0, 0.45, 1.34, 1.86, 1.58, 4.02, 9.2, 15.87, 23.11, 19.21, 5.81, 1.26, 3.49, 8.67, 12.18, 14.15, 13.7, 12.44, 12.46, 12.47, 12.02, 9.83, 7.6, 6.55, 6.79, 7.28, 8.24, 9.28, 9.15, 9.15, 9.15, 5.09, 5.09, 5.09, 5.09, 5.09, 5.09, 5.09, 5.09, 5.57, 5.7, 5.7, 5.7, 6.16, 6.16, 6.23, 6.23, 6.23, 6.71, 6.71, 6.71, 6.71, 6.71, 7.15, 7.15, 7.13, 7.13, 7.13, 7.13, 7.51, 7.51, 7.51, 7.51, 7.07, 7.06, 7.06, 7.06, 7.06, 7.06, 6.61, 6.68, 6.68, 6.68, 6.68, 7.15, 7.58, 8.03, 7.58, 7.13, 6.68, 6.68, 6.6, 6.6, 6.16, 6.16, 6.23, 5.78, 5.36, 4.92, 4.47, 4.47, 3.07, 2.8, 2.4, 1.9, 1.9, 1.58, 0.63, 0.45, 0.0, 0.0, 0.95, 2.4, 6.71, 11.36, 14.7, 17.81, 19.42, 17.96, 14.44, 12.07, 10.79, 11.2, 11.99, 12.22, 12.05, 12.96, 13.86, 12.96, 11.18, 9.81, 8.36, 7.28, 8.63, 9.28, 9.81, 9.81, 9.74, 9.74, 5.09, 5.09, 5.09, 5.09, 5.09, 5.09, 5.09, 5.09, 5.57, 5.7, 5.7, 5.7, 6.16, 6.16, 6.23, 6.23, 6.23, 6.71, 6.71, 6.71, 6.71, 6.71, 7.15, 7.15, 7.13, 7.13, 7.13, 7.13, 7.51, 7.51, 7.51, 7.51, 7.07, 7.07, 7.06, 7.06, 7.06, 6.61, 6.61, 6.61, 6.68, 6.23, 6.71, 7.15, 7.6, 8.03, 7.58, 7.13, 6.61, 6.61, 6.6, 6.16, 6.14, 5.7, 5.78, 5.34, 4.92, 4.92, 4.47, 4.47, 4.02, 3.53, 2.8, 1.2, 1.2, 2.8, 1.2, 0.63, 0.0, 0.45, 0.89, 1.58, 4.82, 10.73, 13.84, 14.73, 16.07, 18.06, 20.32, 21.46, 18.44, 12.66, 8.11, 5.94, 6.26, 8.46, 9.81, 10.26, 9.36, 8.91, 7.92, 7.45, 8.36, 9.36, 9.81, 10.26, 9.81, 9.81, 5.09, 5.09, 5.09, 5.09, 5.09, 5.09, 5.09, 5.09, 5.57, 5.7, 5.7, 5.7, 5.7, 6.16, 6.23, 6.23, 6.23, 6.71, 6.71, 6.71, 6.71, 7.15, 7.15, 7.15, 7.13, 7.13, 7.13, 7.13, 7.51, 7.51, 7.51, 7.51, 7.07, 7.06, 7.06, 7.06, 7.06, 6.61, 6.61, 6.6, 6.23, 6.23, 6.26, 7.15, 7.15, 7.6, 7.58, 7.06, 6.61, 6.61, 6.16, 6.14, 5.7, 5.7, 5.7, 5.33, 4.89, 4.47, 4.02, 4.02, 4.02, 3.58, 3.13, 1.2, 1.2, 2.4, 1.2, 0.63, 0.45, 0.0, -0.45, -0.0, 1.9, 10.52, 14.3, 14.11, 13.67, 15.93, 19.97, 22.6, 20.9, 13.79, 6.55, 2.63, 3.13, 5.81, 8.49, 8.91, 8.91, 8.46, 8.01, 7.57, 8.01, 9.36, 9.83, 9.83, 10.28, 10.28, 5.09, 5.09, 5.09, 5.09, 5.09, 5.09, 5.09, 5.09, 5.57, 5.7, 5.7, 5.7, 5.7, 5.7, 6.23, 6.23, 6.23, 6.71, 6.71, 6.71, 6.71, 7.15, 7.15, 7.15, 7.13, 7.13, 7.13, 7.13, 7.07, 7.51, 7.51, 7.07, 7.07, 7.06, 7.06, 7.06, 6.61, 6.6, 6.16, 6.16, 6.23, 5.78, 5.34, 6.26, 7.13, 8.05, 7.58, 7.06, 6.6, 6.6, 6.16, 5.7, 5.7, 5.67, 5.24, 5.24, 4.89, 4.44, 4.02, 4.02, 4.02, 3.58, 3.13, 1.34, 0.89, 2.24, 2.24, 0.89, 0.45, 0.0, -0.45, -0.63, 1.6, 9.81, 15.65, 15.18, 13.67, 14.92, 17.88, 19.47, 18.27, 15.2, 11.62, 7.12, 4.43, 5.81, 7.6, 8.46, 8.46, 8.46, 8.46, 8.46, 8.46, 9.39, 9.83, 9.83, 9.83, 10.28, 5.09, 5.09, 5.09, 5.09, 5.09, 5.09, 5.09, 5.09, 5.57, 5.7, 5.7, 5.7, 5.7, 5.7, 6.23, 6.23, 6.23, 6.23, 6.71, 6.71, 6.71, 7.15, 7.15, 7.15, 7.13, 7.13, 7.13, 7.13, 7.07, 7.07, 7.07, 7.07, 7.07, 7.06, 6.94, 6.51, 6.6, 6.16, 6.16, 6.14, 5.7, 5.78, 5.33, 5.33, 7.15, 8.05, 7.97, 6.6, 5.7, 5.7, 5.7, 5.7, 5.67, 5.51, 5.51, 5.24, 4.8, 4.44, 3.98, 3.98, 3.98, 3.98, 3.07, 2.68, 2.24, 2.24, 1.34, 0.89, 0.63, 0.0, 0.0, -0.45, 1.34, 6.71, 12.92, 14.87, 15.63, 15.47, 15.84, 15.04, 14.15, 13.41, 13.41, 11.18, 8.05, 6.71, 7.6, 8.05, 8.01, 8.91, 8.91, 9.39, 9.39, 10.28, 10.28, 10.25, 9.81, 9.83, 5.09, 5.09, 5.09, 5.09, 5.09, 5.09, 5.09, 5.09, 5.7, 5.7, 5.7, 5.7, 5.7, 5.78, 6.23, 6.23, 6.23, 6.26, 6.71, 6.71, 6.71, 7.15, 7.15, 7.15, 7.13, 7.13, 7.13, 7.13, 7.07, 7.07, 7.07, 7.07, 7.07, 6.94, 6.94, 6.51, 6.47, 6.16, 5.7, 5.7, 5.7, 5.7, 5.7, 5.24, 5.99, 8.33, 7.58, 5.78, 4.92, 5.36, 5.36, 5.33, 5.33, 5.24, 5.24, 5.24, 4.88, 4.44, 3.98, 3.98, 4.43, 3.87, 3.39, 3.13, 2.68, 2.68, 1.34, 2.68, 0.63, 0.45, 0.0, 0.0, 0.95, 1.6, 6.26, 13.44, 18.06, 19.21, 15.57, 9.83, 6.36, 7.12, 8.94, 9.39, 8.49, 6.71, 6.71, 7.15, 8.49, 9.39, 9.83, 9.83, 10.28, 11.18, 11.15, 10.7, 9.72, 9.72, 5.09, 5.09, 5.09, 5.09, 5.09, 5.09, 5.09, 5.09, 5.24, 5.7, 5.7, 5.7, 5.7, 5.78, 6.23, 6.23, 6.23, 6.26, 6.71, 6.71, 6.71, 6.71, 7.15, 7.15, 7.13, 7.13, 7.13, 7.13, 7.06, 7.07, 7.07, 7.07, 6.97, 6.94, 6.51, 6.47, 6.16, 6.14, 5.7, 5.7, 5.7, 5.7, 5.7, 6.14, 6.3, 7.21, 7.13, 6.26, 5.81, 5.81, 5.36, 5.36, 4.92, 4.89, 4.89, 4.88, 4.44, 4.47, 3.98, 3.98, 3.98, 4.3, 3.39, 3.39, 2.68, 2.68, 2.68, 2.68, 0.63, 0.0, 0.0, 0.0, 0.0, 0.8, 2.21, 9.11, 16.54, 21.4, 17.81, 9.39, 3.97, 4.02, 7.6, 8.91, 9.36, 9.39, 8.49, 8.94, 9.39, 10.28, 10.73, 11.15, 11.15, 11.96, 11.08, 10.16, 10.16, 10.16, 5.09, 5.09, 5.09, 5.09, 5.09, 5.09, 5.09, 5.09, 5.24, 5.7, 5.7, 5.7, 5.7, 5.78, 5.79, 6.23, 6.23, 6.26, 6.26, 6.71, 6.71, 6.71, 7.15, 7.15, 7.13, 7.13, 7.13, 7.13, 7.06, 7.06, 7.07, 7.07, 6.94, 6.94, 6.51, 6.04, 6.14, 5.7, 5.7, 5.7, 5.7, 5.7, 5.7, 6.16, 6.47, 6.51, 6.6, 6.23, 6.23, 6.26, 6.26, 5.81, 5.36, 4.92, 4.92, 4.47, 4.47, 4.47, 4.02, 4.02, 3.98, 4.43, 3.82, 3.82, 2.8, 3.13, 3.13, 2.68, 0.89, -0.0, 0.0, 0.0, 0.0, 1.49, 2.98, 6.08, 11.84, 17.86, 20.0, 17.25, 12.87, 11.52, 12.33, 12.5, 12.07, 12.07, 11.18, 10.7, 11.08, 11.08, 11.52, 11.53, 11.86, 12.3, 11.4, 10.49, 10.49, 10.49, 5.09, 5.09, 5.09, 5.09, 5.09, 5.09, 5.09, 5.09, 5.24, 5.24, 5.7, 5.7, 5.78, 5.78, 5.79, 6.23, 6.26, 6.26, 6.26, 6.71, 6.71, 6.71, 6.71, 7.13, 7.13, 7.13, 7.13, 7.06, 7.06, 7.06, 7.06, 6.94, 6.94, 6.51, 6.47, 6.16, 5.7, 5.7, 5.26, 5.26, 5.7, 5.7, 5.7, 6.16, 6.6, 6.6, 6.16, 6.23, 6.23, 6.23, 6.23, 6.26, 5.81, 5.36, 4.92, 4.47, 4.47, 4.47, 4.47, 4.02, 4.02, 4.02, 4.43, 3.82, 3.82, 3.13, 3.13, 1.7, 1.2, 0.63, 0.45, 1.0, 0.99, 1.6, 3.16, 3.83, 7.11, 12.49, 17.15, 17.9, 17.66, 18.64, 19.01, 16.76, 13.86, 12.05, 11.54, 11.4, 11.23, 10.32, 11.21, 10.8, 11.66, 11.66, 11.23, 10.25, 10.25, 10.25, 5.02, 5.02, 5.09, 5.09, 5.09, 5.09, 5.09, 5.24, 5.24, 5.24, 5.26, 5.7, 5.78, 5.78, 5.78, 6.23, 6.26, 6.26, 6.26, 6.71, 6.71, 6.71, 6.71, 7.13, 7.13, 7.13, 7.13, 7.06, 7.06, 7.06, 7.06, 6.94, 6.94, 6.47, 6.16, 5.7, 5.7, 5.26, 5.24, 5.24, 5.26, 5.7, 5.7, 6.16, 6.6, 6.16, 6.16, 6.16, 6.14, 6.16, 6.16, 6.16, 6.23, 5.78, 5.33, 4.88, 4.44, 4.44, 4.47, 4.47, 4.02, 4.02, 3.98, 3.98, 3.58, 3.58, 3.58, 1.34, 1.34, 0.8, 1.26, 1.0, 0.85, 1.98, 1.6, 1.79, 4.47, 9.83, 12.77, 12.79, 14.13, 18.92, 21.94, 19.72, 15.39, 11.62, 10.63, 11.09, 10.52, 10.0, 9.8, 9.49, 10.43, 10.52, 10.01, 9.49, 9.49, 9.49, 5.02, 5.02, 5.02, 5.09, 4.6, 5.09, 5.09, 5.24, 5.24, 5.24, 5.26, 5.78, 5.78, 5.78, 5.78, 5.81, 6.26, 6.26, 6.26, 6.71, 6.71, 6.71, 6.71, 6.68, 7.13, 7.13, 7.06, 7.06, 7.06, 7.06, 7.06, 6.94, 6.51, 6.6, 6.16, 5.7, 5.7, 5.24, 5.24, 5.24, 5.26, 5.7, 5.7, 6.16, 6.16, 6.16, 6.16, 6.14, 5.7, 6.14, 6.16, 6.16, 6.16, 5.78, 5.33, 4.89, 4.88, 4.44, 4.44, 4.44, 4.43, 3.98, 3.98, 4.02, 3.13, 3.58, 3.13, 3.13, 2.24, 0.89, 0.63, 0.0, 0.0, 1.58, 2.24, 2.68, 4.47, 7.11, 8.95, 8.68, 10.91, 17.09, 21.8, 20.8, 18.36, 15.69, 12.96, 11.09, 10.15, 7.32, 7.67, 8.24, 8.63, 8.8, 8.8, 8.4, 8.4, 8.4, 4.6, 4.6, 4.6, 4.6, 4.6, 4.6, 4.66, 5.24, 5.24, 5.24, 5.26, 5.78, 5.78, 5.78, 5.78, 5.81, 6.26, 6.26, 6.26, 6.26, 6.71, 6.71, 6.68, 6.68, 7.13, 7.13, 7.06, 7.06, 7.06, 7.06, 7.06, 6.61, 6.6, 6.16, 5.7, 5.7, 5.24, 5.24, 5.24, 5.24, 5.24, 5.7, 5.7, 6.14, 6.16, 6.16, 6.16, 6.14, 5.7, 5.7, 6.14, 6.04, 6.14, 5.7, 5.24, 4.8, 4.77, 4.77, 4.34, 4.3, 4.43, 3.98, 3.98, 3.58, 2.68, 3.13, 3.13, 2.68, 2.24, 0.45, 0.0, 0.0, 0.0, 0.0, 1.34, 2.24, 3.04, 4.6, 5.77, 6.68, 9.27, 14.58, 18.45, 19.84, 20.68, 19.72, 16.03, 11.99, 6.32, 5.72, 6.06, 6.7, 7.69, 7.69, 7.92, 7.92, 7.92, 7.92, 4.6, 4.6, 4.6, 4.6, 4.6, 4.6, 4.8, 4.8, 5.24, 5.24, 5.24, 5.34, 5.78, 5.78, 5.81, 5.81, 6.26, 6.26, 6.26, 6.26, 6.71, 6.68, 6.68, 6.68, 6.68, 7.13, 7.06, 7.06, 7.06, 7.06, 6.61, 6.6, 6.16, 6.14, 5.7, 5.7, 5.24, 5.24, 5.24, 5.24, 5.24, 5.7, 5.7, 5.7, 6.16, 6.16, 6.16, 6.14, 5.7, 5.7, 6.14, 5.99, 5.99, 5.57, 5.24, 4.77, 4.6, 4.6, 4.6, 4.3, 4.3, 3.87, 3.87, 3.53, 2.63, 2.4, 2.0, 1.79, 0.89, 0.89, 0.45, 0.0, 0.0, 0.0, 0.0, 0.89, 1.26, 0.85, 2.2, 5.43, 8.55, 11.09, 13.1, 17.27, 21.22, 21.29, 12.52, 6.85, 3.72, 3.78, 4.74, 5.37, 6.01, 7.02, 7.33, 6.98, 6.98, 6.98, 4.6, 4.6, 4.6, 4.6, 4.6, 4.77, 4.77, 4.8, 5.24, 5.24, 5.33, 5.34, 5.78, 5.78, 5.81, 5.81, 6.26, 6.26, 6.26, 6.26, 6.71, 6.68, 6.68, 6.68, 6.68, 6.68, 6.61, 6.61, 6.61, 6.61, 6.6, 6.6, 6.16, 5.7, 5.7, 5.24, 5.24, 5.24, 5.24, 5.24, 5.24, 5.7, 5.7, 5.7, 6.14, 6.16, 6.16, 6.14, 5.7, 5.7, 5.57, 5.99, 5.99, 5.09, 5.02, 4.6, 4.6, 4.6, 4.6, 4.11, 4.11, 3.87, 3.82, 3.39, 2.91, 2.23, 1.0, 0.8, 0.45, 0.45, 0.45, 0.45, 0.45, 0.0, 0.0, 0.45, -0.0, -0.0, 0.85, 3.84, 6.94, 8.14, 9.6, 14.58, 20.47, 18.72, 14.3, 7.57, 2.86, 2.86, 4.09, 4.07, 4.29, 5.37, 5.37, 4.46, 4.46, 4.46, 4.6, 4.6, 4.6, 4.6, 4.77, 4.77, 4.77, 4.8, 5.24, 5.33, 5.33, 5.34, 5.34, 5.81, 5.81, 5.81, 5.81, 6.26, 6.26, 6.26, 6.26, 6.68, 6.68, 6.68, 6.68, 6.68, 6.61, 6.61, 6.61, 6.6, 6.6, 6.16, 6.16, 5.7, 5.7, 5.24, 5.24, 5.24, 5.24, 5.24, 5.24, 5.7, 5.7, 5.7, 5.7, 6.14, 6.16, 6.14, 5.7, 5.57, 5.57, 5.99, 5.57, 5.09, 5.02, 4.6, 4.6, 4.6, 4.52, 4.11, 4.11, 4.11, 3.6, 3.07, 3.07, 2.15, 1.2, 0.0, 0.0, 0.0, 0.0, 0.0, 0.89, 0.63, 0.0, -0.63, 0.45, -0.0, 0.8, 2.23, 4.93, 6.7, 7.71, 12.3, 22.8, 20.12, 15.65, 9.39, 2.68, 1.61, 3.32, 4.66, 2.79, 2.07, 1.88, 1.26, 1.26, 1.26, 4.6, 4.6, 4.6, 4.77, 4.77, 4.77, 4.77, 4.8, 4.8, 5.33, 5.33, 5.33, 5.34, 5.81, 5.81, 5.81, 5.81, 6.26, 6.26, 6.26, 6.26, 6.23, 6.68, 6.68, 6.68, 6.68, 6.68, 6.61, 6.6, 6.6, 6.16, 6.16, 6.14, 5.7, 5.7, 5.24, 5.24, 5.24, 5.24, 5.24, 5.24, 5.24, 5.7, 5.7, 5.7, 5.7, 6.14, 6.14, 5.99, 5.57, 5.57, 5.57, 5.57, 5.09, 5.02, 4.4, 4.4, 4.4, 4.27, 3.88, 3.88, 3.88, 3.6, 3.6, 2.79, 2.53, 1.74, 0.87, 0.0, -0.76, -0.87, 0.0, 0.71, 1.0, 0.0, 0.0, -0.45, -0.0, 1.2, 1.7, 3.47, 5.59, 7.45, 19.67, 23.25, 21.01, 16.99, 12.07, 4.43, 1.9, 3.07, 5.44, 2.53, 0.54, 0.0, -0.45, -0.45, -0.45, 4.77, 4.77, 4.77, 4.77, 4.77, 4.77, 4.77, 4.8, 4.89, 5.33, 5.33, 5.33, 5.36, 5.81, 5.81, 5.81, 5.81, 6.26, 6.26, 6.26, 6.26, 6.23, 6.23, 6.23, 6.68, 6.68, 6.68, 6.6, 6.16, 6.16, 6.16, 6.16, 5.7, 5.7, 5.7, 5.24, 5.24, 5.24, 5.24, 5.24, 5.24, 5.24, 5.7, 5.7, 5.7, 5.7, 5.7, 5.99, 5.99, 5.57, 5.57, 5.51, 5.51, 5.09, 4.8, 4.4, 4.4, 4.4, 4.27, 3.88, 3.88, 3.88, 3.72, 3.35, 2.84, 2.51, 2.15, 1.84, 0.71, 0.0, 0.0, -0.73, 0.0, 0.0, 0.0, 0.0, -0.89, 0.0, 1.34, 1.79, 2.24, 4.41, 12.49, 18.76, 21.89, 20.55, 16.99, 12.52, 7.04, 2.53, 3.16, 5.6, 1.9, -0.57, -0.63, -0.45, -0.45, -0.45, 4.77, 4.77, 4.77, 4.77, 4.77, 4.77, 4.8, 4.89, 4.89, 5.33, 5.33, 5.36, 5.36, 5.36, 5.81, 5.81, 5.81, 5.81, 6.26, 6.26, 6.26, 6.23, 6.23, 6.23, 6.23, 6.23, 6.23, 6.23, 6.16, 6.16, 6.16, 6.14, 5.7, 5.7, 5.24, 5.24, 5.24, 5.24, 5.24, 5.24, 5.24, 5.24, 5.67, 5.7, 5.7, 5.7, 5.57, 5.57, 5.57, 5.57, 5.51, 5.09, 5.51, 5.09, 4.8, 4.4, 4.4, 4.27, 4.27, 4.27, 4.0, 4.0, 3.64, 3.43, 3.16, 2.84, 2.51, 1.61, 0.85, 0.57, 0.0, -0.57, -0.71, -0.76, -0.85, 0.0, -0.8, 0.0, 1.58, 2.12, 2.12, 2.68, 10.7, 16.47, 19.97, 19.16, 15.65, 11.15, 5.02, 2.79, 4.07, 4.09, 0.95, -1.26, -0.6, 0.0, 0.0, 0.0, 4.77, 4.77, 4.77, 4.77, 4.77, 4.88, 4.89, 4.89, 4.89, 4.89, 5.36, 5.36, 5.36, 5.36, 5.81, 5.81, 5.81, 5.81, 5.81, 5.81, 6.23, 6.23, 6.23, 6.23, 6.23, 6.23, 6.23, 6.23, 6.16, 6.16, 6.14, 5.7, 5.7, 5.7, 5.24, 5.24, 5.24, 5.24, 5.24, 5.24, 5.24, 5.24, 5.24, 5.7, 5.7, 5.7, 5.57, 5.7, 5.7, 5.7, 5.51, 5.09, 5.51, 4.9, 4.8, 4.4, 4.27, 4.0, 4.0, 4.0, 4.0, 4.0, 4.0, 3.43, 3.16, 2.86, 2.23, 1.84, 1.33, 0.8, 0.6, 0.0, -0.95, -1.58, -0.8, 0.0, 0.0, 0.0, 0.65, 1.49, 1.58, 4.66, 8.01, 13.41, 18.26, 18.71, 15.63, 10.73, 3.53, 0.53, 0.61, 0.57, 0.0, -0.6, 0.0, 0.0, 0.0, 0.0, 4.8, 4.8, 4.77, 4.8, 4.89, 4.89, 4.89, 4.89, 4.89, 4.92, 5.36, 5.36, 5.36, 5.36, 5.36, 5.81, 5.81, 5.81, 5.81, 5.81, 5.78, 6.23, 6.23, 6.23, 6.23, 6.23, 6.23, 6.23, 6.23, 6.14, 5.7, 5.7, 5.7, 5.26, 5.24, 5.24, 5.24, 5.24, 5.24, 5.24, 5.24, 5.24, 5.24, 5.24, 5.67, 5.7, 5.7, 5.7, 5.7, 5.7, 5.51, 5.09, 5.51, 4.9, 4.8, 4.4, 4.0, 4.0, 4.0, 4.07, 4.07, 4.07, 4.07, 3.48, 3.15, 3.15, 2.86, 2.48, 1.27, 0.87, 0.0, 0.0, -0.6, -1.24, -1.24, 0.0, 0.0, 0.0, 0.7, 1.6, 2.15, 3.49, 6.0, 10.93, 16.52, 18.33, 16.09, 12.05, 3.13, -1.27, -1.86, -0.95, 0.0, 0.0, -0.57, -0.54, -0.54, -0.54, 4.8, 4.8, 4.8, 4.89, 4.89, 4.89, 4.89, 4.89, 4.92, 4.92, 5.36, 5.36, 5.36, 5.36, 5.36, 5.36, 5.81, 5.81, 5.81, 5.81, 5.78, 5.78, 5.78, 5.78, 5.79, 6.23, 6.23, 6.23, 6.23, 5.7, 5.7, 5.7, 5.7, 5.24, 5.24, 5.24, 5.24, 5.24, 5.24, 5.24, 5.24, 5.24, 5.24, 5.24, 5.24, 5.24, 5.67, 5.7, 5.7, 5.7, 5.51, 5.09, 5.09, 4.9, 4.8, 4.4, 4.0, 4.0, 4.07, 4.07, 3.79, 4.11, 3.79, 3.79, 2.86, 2.86, 2.86, 2.44, 1.76, 0.79, 0.0, 0.0, -0.71, -1.2, -1.33, 0.0, 0.0, 0.65, 0.76, 0.76, 1.4, 3.16, 5.09, 9.49, 14.44, 17.81, 16.54, 13.86, 4.47, -1.79, -3.58, -2.24, -1.34, -0.89, -1.2, -1.26, -1.26, -1.26, 4.89, 4.89, 4.89, 4.89, 4.89, 4.89, 4.89, 4.92, 4.92, 4.92, 5.36, 5.36, 5.36, 5.36, 5.36, 5.36, 5.36, 5.81, 5.81, 5.78, 5.78, 5.78, 5.78, 5.78, 5.78, 5.78, 5.78, 5.78, 5.78, 5.7, 5.7, 5.7, 5.7, 5.24, 5.24, 5.24, 5.24, 5.24, 5.24, 5.24, 5.24, 5.24, 5.24, 5.24, 5.24, 5.24, 5.24, 5.24, 5.24, 5.51, 5.51, 5.09, 4.9, 4.9, 4.8, 4.8, 4.0, 4.37, 4.07, 4.07, 4.11, 4.11, 4.11, 3.79, 3.49, 3.12, 2.86, 2.86, 2.44, 1.27, 0.59, 0.0, 0.0, -0.54, -0.76, -0.79, 0.0, 0.0, 0.0, 0.0, 0.65, 2.41, 5.46, 8.63, 13.49, 16.69, 16.37, 15.18, 10.28, 0.45, -3.07, -2.63, -1.49, -0.95, -0.63, 0.45, 0.45, 0.45, 4.89, 4.89, 4.89, 4.89, 4.89, 4.89, 4.92, 4.92, 4.92, 4.92, 4.92, 5.36, 5.36, 5.36, 5.36, 5.36, 5.36, 5.36, 5.78, 5.78, 5.78, 5.78, 5.78, 5.78, 5.78, 5.78, 5.78, 5.78, 5.78, 5.7, 5.7, 5.7, 5.7, 5.24, 5.24, 5.24, 5.24, 5.24, 5.24, 5.09, 5.09, 5.09, 5.24, 5.24, 5.24, 5.24, 5.24, 5.24, 5.24, 5.51, 5.51, 4.9, 4.9, 4.9, 4.8, 4.55, 4.0, 4.07, 4.07, 4.11, 4.11, 3.83, 4.12, 3.83, 3.22, 2.84, 2.84, 2.84, 2.86, 1.76, 1.13, 0.76, 0.57, 0.0, 0.0, 0.0, 0.0, 0.0, 0.0, 0.0, 0.65, 3.07, 5.43, 8.3, 12.56, 16.09, 16.37, 15.18, 13.41, 7.15, 0.0, -2.17, -0.99, -0.0, 0.57, 0.99, 0.99, 0.99, 4.89, 4.89, 4.89, 4.89, 4.89, 4.92, 4.92, 4.92, 4.92, 4.92, 4.92, 4.92, 4.92, 5.36, 5.36, 5.36, 5.36, 5.36, 5.34, 5.34, 5.78, 5.78, 5.78, 5.78, 5.78, 5.78, 5.78, 5.78, 5.7, 5.7, 5.7, 5.7, 5.26, 5.24, 5.24, 5.24, 5.24, 5.09, 5.09, 5.09, 5.09, 5.09, 5.24, 5.24, 5.24, 5.24, 5.24, 5.24, 5.09, 5.51, 5.31, 4.9, 4.9, 5.31, 4.55, 4.55, 4.37, 4.07, 4.11, 4.11, 4.11, 4.12, 4.12, 4.12, 3.49, 2.84, 2.84, 2.84, 2.84, 2.2, 1.76, 1.13, 1.2, 1.58, 0.0, 0.0, 0.0, 0.0, 0.0, 0.0, 1.33, 3.22, 5.06, 7.69, 11.34, 14.27, 15.47, 14.73, 13.86, 12.52, 6.26, 0.89, -0.0, 0.57, 1.9, 2.5, 2.5, 2.5, 4.89, 4.89, 4.89, 4.89, 4.89, 4.92, 4.92, 4.92, 4.92, 4.92, 4.92, 4.92, 4.92, 5.36, 5.36, 5.36, 5.36, 5.36, 5.34, 5.34, 5.78, 5.78, 5.78, 5.78, 5.78, 5.78, 5.78, 5.78, 5.7, 5.7, 5.7, 5.7, 5.26, 5.24, 5.24, 5.24, 5.24, 5.09, 5.09, 5.09, 5.09, 5.09, 5.24, 5.24, 5.24, 5.24, 5.24, 5.24, 5.09, 5.51, 5.31, 4.9, 4.9, 5.31, 4.55, 4.55, 4.37, 4.07, 4.11, 4.11, 4.11, 4.12, 4.12, 4.12, 3.49, 2.84, 2.84, 2.84, 2.84, 2.2, 1.76, 1.13, 1.2, 1.58, 0.0, 0.0, 0.0, 0.0, 0.0, 0.0, 1.33, 2.98, 5.06, 7.69, 9.84, 12.14, 14.4, 14.23, 13.41, 12.96, 11.62, 6.71, 2.24, 1.7, 2.4, 3.32, 3.32, 3.32]}, {"header": {"dx": 0.06612293990616946, "dy": 0.0552356325346848, "nx": 98, "ny": 59, "la1": 35.046912555036876, "la2": 31.78801023549047, "lo1": -121.43107172385933, "lo2": -114.95102361305473, "refTime": "2026041006", "parameterCategory": 1, "parameterNumber": 3}, "data": [0.0, 0.0, 0.0, 0.0, 0.0, 0.0, 0.0, 0.0, 0.0, 0.0, 0.0, 0.0, 0.0, 0.0, 0.0, 0.0, 0.0, -0.0, 0.0, 0.0, 1.79, 2.23, 2.84, 2.53, 2.4, 2.29, 2.35, 3.2, 3.69, 5.21, 6.32, 5.3, 3.79, 0.32, -1.58, -1.49, -1.26, -1.6, -1.79, -2.24, -2.6, -2.23, -1.74, -2.0, -3.2, -4.0, -5.41, -4.6, -1.45, 2.2, 4.65, 5.3, 5.59, 6.01, 6.39, 6.7, 6.68, 6.95, 6.88, 6.31, 5.38, 4.56, 4.46, 5.2, 5.05, 5.43, 6.01, 6.24, 6.05, 6.09, 5.2, 4.68, 3.85, 3.61, 3.21, 3.11, 3.07, 2.91, 1.56, 0.0, -0.0, -0.65, -1.49, -2.21, -2.8, -2.68, -2.12, -1.58, -2.3, -3.09, -4.71, -5.63, -6.09, -6.33, -6.33, -6.09, -5.41, -4.6, 0.0, 0.0, 0.0, 0.0, 0.0, 0.0, 0.0, 0.0, 0.0, 0.0, 0.0, 0.0, 0.0, 0.0, 0.0, 0.0, 0.0, -0.0, -0.0, -0.0, 0.45, 1.26, 2.21, 2.95, 2.3, 2.2, 1.55, 2.2, 2.98, 4.11, 5.72, 7.03, 6.36, 3.53, -0.0, -0.0, -0.0, -0.0, -1.34, -1.79, -2.68, -2.8, -3.93, -5.37, -6.24, -6.31, -4.0, -0.76, 2.2, 4.65, 4.83, 4.83, 5.3, 5.37, 5.72, 6.39, 6.68, 6.95, 6.05, 6.31, 5.28, 4.56, 5.21, 5.75, 6.0, 6.08, 6.32, 6.24, 6.05, 6.09, 5.99, 4.68, 3.95, 3.21, 3.06, 2.97, 3.07, 2.91, 1.56, 0.0, -0.0, -0.65, -1.49, -2.21, -2.8, -2.68, -2.12, -1.58, -2.3, -3.09, -4.71, -5.63, -6.09, -6.33, -6.33, -6.09, -5.41, -4.6, 0.0, 0.0, 0.0, 0.0, 0.0, 0.0, 0.0, 0.0, 0.0, 0.0, 0.0, 0.0, 0.0, 0.0, 0.0, 0.0, 0.0, -0.95, -1.26, -0.63, -0.0, 0.0, 0.95, 1.9, 3.22, 3.22, 3.07, 2.15, 1.49, 2.23, 3.97, 6.22, 7.12, 4.92, 2.6, 0.71, 0.71, -0.0, -0.89, -1.79, -3.07, -5.34, -6.44, -6.32, -5.21, -2.8, 0.0, 2.98, 4.65, 4.56, 4.56, 4.56, 4.36, 5.43, 5.38, 6.06, 6.32, 6.53, 6.05, 5.95, 5.28, 4.65, 5.43, 6.7, 6.64, 7.07, 7.68, 7.97, 7.82, 7.73, 7.01, 5.6, 4.01, 2.97, 1.58, 1.52, 1.52, 3.1, 1.36, 0.0, -0.0, -0.71, -1.9, -3.16, -3.14, -3.32, -2.68, -2.6, -3.72, -5.64, -6.33, -7.12, -7.63, -7.63, -7.24, -6.2, -5.28, -4.5, 0.0, 0.0, 0.0, 0.0, 0.0, 0.0, 0.0, 0.0, 0.0, 0.0, 0.0, 0.0, 0.0, 0.0, 0.0, 0.0, 0.0, -1.34, -1.58, -0.8, -0.0, -0.0, 0.0, 0.89, 2.15, 4.11, 4.43, 3.07, 1.9, 1.79, 2.6, 3.97, 4.47, 3.95, 3.2, 1.26, 0.89, 0.0, -1.34, -2.6, -4.24, -4.46, -3.07, -1.41, 0.0, 1.33, 3.35, 4.01, 4.65, 4.16, 4.02, 4.01, 4.43, 5.43, 6.44, 6.39, 6.32, 6.24, 6.05, 5.41, 5.38, 4.74, 5.86, 6.79, 8.4, 8.63, 8.67, 8.86, 9.2, 9.13, 8.56, 6.9, 5.29, 3.61, 1.4, 0.0, -0.72, 0.0, 0.79, 0.0, -0.6, -0.57, -2.23, -3.16, -3.35, -2.86, -2.24, -3.83, -6.06, -7.73, -7.79, -7.9, -7.73, -6.97, -6.31, -4.6, -3.69, -3.09, 0.0, 0.0, 0.0, 0.0, 0.0, 0.0, 0.0, 0.0, 0.0, 0.0, 0.0, 0.0, 0.0, 0.0, -0.89, -1.34, -1.34, -1.34, -2.0, -1.86, -0.8, -0.0, 0.0, 0.89, 1.7, 2.23, 3.79, 3.91, 3.16, 2.4, 2.24, 2.4, 2.6, 1.79, 1.58, 0.65, 0.71, 0.0, -2.4, -3.51, -1.86, 0.0, 1.4, 2.07, 2.79, 3.79, 4.46, 4.43, 4.01, 4.01, 3.79, 4.46, 5.46, 5.77, 6.06, 6.32, 5.94, 5.49, 6.05, 5.41, 4.71, 4.84, 6.07, 8.14, 9.75, 9.74, 9.27, 8.93, 9.27, 9.48, 8.46, 8.06, 6.95, 5.38, 3.07, 0.0, -2.18, -2.21, 0.0, 0.0, -1.7, -1.86, -2.23, -2.79, -4.01, -3.83, -4.85, -6.44, -8.27, -9.48, -8.37, -6.97, -7.08, -6.88, -4.56, -2.88, -2.2, -2.26, 0.0, 0.0, 0.0, 0.0, 0.0, 0.0, 0.0, 0.0, 0.0, 0.0, -0.95, -0.63, 0.0, 0.0, -1.34, -1.79, -1.79, -2.24, -3.13, -2.6, -2.4, -2.12, -0.89, 0.0, 0.6, 0.8, 1.49, 1.6, 2.95, 2.68, 2.5, 2.24, 1.79, 0.89, 0.0, 0.0, 0.0, 0.0, -1.9, -2.24, 0.63, 2.12, 2.86, 3.49, 4.46, 6.44, 6.7, 6.08, 5.09, 3.48, 3.49, 4.46, 5.43, 5.37, 5.37, 5.3, 4.56, 4.83, 4.5, 4.8, 3.79, 4.66, 7.11, 8.82, 9.83, 9.74, 8.67, 8.06, 8.03, 8.12, 7.79, 6.79, 7.82, 7.0, 5.41, 3.14, -0.71, -2.2, -0.73, 0.0, -2.17, -3.51, -3.32, -3.84, -5.09, -7.11, -8.82, -9.27, -9.85, -9.56, -8.6, -7.82, -7.82, -4.65, -1.61, -1.4, -2.35, -2.99, 0.0, 0.0, 0.0, 0.0, 0.0, 0.0, 0.0, 0.0, -0.8, -0.8, -0.6, -0.95, -0.95, -0.95, -2.24, -1.79, -2.24, -3.13, -3.95, -2.68, -2.68, -2.68, -2.24, -2.12, -1.58, -0.71, -0.71, 0.0, 0.76, 1.88, 3.16, 2.5, 1.86, 0.8, 0.0, 0.0, 0.0, 0.0, -0.76, 0.0, 1.0, 1.26, 1.34, 2.54, 4.0, 6.94, 8.24, 8.63, 7.67, 6.7, 5.59, 5.09, 5.37, 5.37, 4.65, 3.9, 3.11, 3.11, 3.6, 3.15, 2.79, 4.41, 6.66, 8.36, 8.14, 8.24, 8.06, 6.06, 5.3, 5.28, 4.68, 4.58, 4.24, 4.66, 4.62, 4.75, 2.39, 0.0, 0.0, -0.76, -3.04, -6.71, -6.66, -6.07, -7.56, -9.28, -10.8, -10.55, -9.9, -8.93, -9.21, -9.56, -5.69, -0.6, 0.0, -1.4, -3.09, -4.0, 0.0, 0.0, 0.0, 0.0, 0.0, 0.0, 0.0, -0.71, -0.57, -0.57, -1.26, -1.6, -1.79, -1.26, -1.9, -2.0, -2.54, -2.97, -3.2, -1.86, -1.24, -0.71, -1.24, -2.4, -2.5, -2.21, -2.21, -1.49, 0.0, 1.26, 1.74, 1.4, 0.65, 0.0, 0.0, -0.61, -0.61, -0.66, 0.0, 0.0, -0.0, -0.0, -0.0, 0.63, 1.79, 4.34, 7.28, 8.63, 9.27, 8.23, 5.46, 5.43, 6.06, 5.3, 4.56, 3.9, 2.88, 2.88, 3.09, 3.2, 2.84, 3.97, 5.36, 6.98, 6.7, 6.44, 6.01, 3.79, 2.29, 1.55, 1.54, 1.56, 1.48, 0.76, 0.77, 2.12, 3.95, 3.82, 1.54, 0.0, -2.06, -7.48, -8.05, -8.05, -8.46, -9.68, -10.09, -9.92, -8.93, -7.97, -8.23, -5.72, -0.63, 0.89, 0.0, -1.84, -4.46, -4.6, 0.0, 0.0, 0.0, 0.0, 0.0, 0.0, 0.0, -0.54, -0.71, -1.24, -1.24, -1.86, -3.13, -2.97, -2.97, -2.97, -3.47, -3.47, -3.47, -1.26, -0.57, 0.0, 0.0, -0.76, -2.53, -2.53, -2.53, -1.6, 0.0, 0.0, -0.76, -0.7, -0.76, 0.0, 0.0, 0.0, -0.87, -1.8, -0.7, 0.0, -0.0, -0.0, -0.0, -0.0, 0.89, 2.68, 4.02, 6.0, 7.06, 7.68, 8.23, 6.7, 6.39, 6.01, 5.3, 4.65, 3.9, 4.16, 3.69, 3.2, 3.79, 5.59, 5.59, 6.28, 6.0, 5.43, 5.3, 3.79, 0.7, 0.0, 0.0, 0.0, 0.0, 0.0, 0.0, 0.0, 0.77, 1.6, 1.51, 1.36, 0.77, -5.6, -7.6, -8.02, -8.24, -8.67, -8.49, -8.03, -6.98, -5.69, -3.84, -0.63, 1.2, 0.0, -1.2, -3.9, -5.21, -5.21, 0.0, 0.0, 0.0, 0.0, 0.0, 0.0, -0.65, -0.65, -1.2, -1.2, -1.61, -2.21, -2.68, -3.39, -3.9, -4.38, -4.38, -4.41, -4.02, -3.58, -3.04, -2.8, -2.53, -2.41, -2.84, -3.58, -2.86, -2.54, -2.24, -2.21, -2.68, -2.41, -1.24, 0.0, 0.0, 0.0, 0.0, 0.0, 0.0, 0.0, -0.95, -0.0, 0.0, 0.0, 1.34, 2.17, 2.6, 2.8, 3.49, 6.07, 7.28, 7.69, 7.33, 6.68, 6.01, 6.06, 5.37, 4.56, 4.56, 3.79, 6.07, 7.89, 8.91, 7.47, 7.47, 6.08, 5.59, 4.22, 1.35, 0.0, -0.69, -0.71, -0.7, 0.0, 0.0, 0.0, -0.73, -1.5, -0.71, 0.0, 0.71, 0.0, -5.32, -6.22, -6.11, -6.13, -6.52, -6.0, -5.06, -3.48, -1.9, 0.0, -0.32, -1.86, -2.79, -5.21, -6.24, -6.01, 0.0, 0.0, 0.0, 0.0, 0.0, 0.0, -0.53, -0.53, -1.2, -1.2, -1.88, -2.53, -2.23, -3.14, -4.0, -4.15, -3.74, -6.16, -6.61, -7.51, -7.11, -6.98, -6.28, -5.2, -6.4, -3.2, -3.2, -3.2, -3.32, -2.84, -2.68, -1.88, 0.0, 0.0, 0.0, -0.76, 0.0, 0.76, 0.6, 0.0, 0.0, 0.63, 1.26, 1.6, 2.53, 2.4, 3.04, 3.07, 2.91, 5.16, 7.28, 8.0, 8.05, 7.69, 7.69, 7.69, 7.33, 6.32, 4.56, 4.74, 8.4, 10.25, 9.75, 9.33, 9.83, 9.6, 8.67, 6.68, 3.9, 1.41, 0.72, 0.65, 0.0, 0.0, 0.0, -0.7, -1.36, -2.44, -3.15, -2.39, -1.36, 0.69, 0.0, -3.07, -3.32, -4.0, -5.05, -5.09, -4.46, -2.86, -2.5, -2.5, -2.8, -2.86, -5.43, -6.95, -6.95, -6.06, 0.51, 0.0, 0.0, 0.0, 0.0, 0.0, -0.61, -0.61, -1.16, -1.16, -1.61, -1.84, -2.51, -2.48, -2.48, -2.86, -2.86, -3.73, -4.55, -5.08, -4.55, -3.73, -3.64, -3.79, -2.23, -2.48, -2.2, -2.23, -1.84, -1.33, -0.79, 0.0, 1.2, 0.0, -0.8, -0.54, 0.57, 1.2, 0.45, 0.0, 1.2, 2.17, 2.6, 3.35, 4.24, 3.07, 5.36, 6.26, 6.71, 6.26, 6.21, 6.98, 7.47, 7.89, 8.14, 8.24, 8.3, 6.95, 3.79, 4.46, 9.26, 10.75, 10.25, 10.16, 11.52, 12.14, 11.75, 10.48, 8.32, 6.32, 5.31, 4.73, 3.61, 1.6, 0.0, -0.73, -1.47, -1.55, -2.0, -2.2, -0.7, 0.74, 1.49, -1.26, -2.12, -3.45, -4.46, -4.09, -4.0, -3.45, -4.66, -5.44, -5.34, -5.43, -6.39, -6.88, -6.32, -5.46, 0.59, 0.0, 0.0, 0.0, 0.0, 0.0, -0.51, -0.59, -1.13, -1.13, -1.84, -1.84, -2.23, -2.48, -2.44, -2.2, -2.2, -2.4, -2.36, -2.16, -1.8, -1.12, -0.56, 0.0, 0.56, 0.55, 1.16, 1.14, 1.07, 1.09, 0.7, 0.66, 1.4, 0.0, 0.0, 0.63, 1.34, 1.34, 0.63, 0.89, 1.7, 2.12, 2.17, 1.7, 1.79, 2.68, 3.58, 3.58, 3.58, 3.13, 3.53, 3.13, 3.07, 3.07, 3.04, 3.04, 5.37, 6.69, 3.09, 3.32, 8.05, 9.72, 10.02, 10.28, 11.18, 11.18, 11.89, 12.04, 10.23, 9.92, 9.23, 8.46, 6.09, 3.95, 0.75, -0.74, 0.0, 0.0, 0.0, 0.0, 0.0, 0.0, 0.0, 0.0, -1.26, -1.9, -3.48, -2.86, -2.5, -2.86, -4.09, -5.44, -5.94, -6.64, -7.68, -7.18, -5.3, -3.84, 0.59, 0.59, 0.0, 0.0, 0.0, 0.0, 0.0, -0.59, -0.59, -1.13, -1.27, -1.8, -1.8, -2.22, -2.44, -2.2, -2.18, -2.16, -2.14, -1.63, -1.16, -0.54, 0.0, 0.0, 0.0, 1.1, 1.15, 1.69, 2.23, 2.25, 1.16, 0.79, 0.0, 0.0, 0.0, 1.2, 1.2, 1.2, 1.34, 0.63, 0.63, 0.63, 0.63, 2.4, 3.58, 4.47, 2.24, 2.24, 1.6, 1.86, 2.0, 0.63, 0.0, 0.0, 0.0, -0.0, 1.34, 3.0, 2.23, 2.91, 6.28, 8.05, 8.94, 9.39, 8.82, 8.36, 8.49, 8.38, 9.4, 8.32, 9.27, 8.76, 6.33, 3.02, 0.78, 0.0, 1.4, 1.9, 2.41, 1.6, 0.0, -0.79, -1.45, -1.45, -0.65, -1.4, -1.49, -1.49, -1.24, -1.4, -2.84, -3.07, -5.44, -7.03, -7.61, -6.95, -4.65, -3.16, 0.59, 0.59, 0.59, 0.0, 0.0, 0.0, 0.0, -0.51, -0.57, -1.11, -1.11, -1.58, -1.58, -1.76, -2.44, -2.2, -2.18, -2.16, -1.65, -1.73, -1.16, -0.56, -0.59, 0.0, 0.0, 0.57, 0.56, 1.17, 1.16, 1.72, 1.16, 0.58, 0.0, 0.0, 0.0, 1.4, 2.84, 1.86, 2.53, 0.6, 0.0, 0.0, 0.0, 0.0, 2.8, 3.39, 4.02, 3.58, 2.8, 0.95, 0.63, 0.0, -0.45, 0.0, 0.0, -0.0, -1.34, -1.27, 0.72, 4.11, 3.74, 2.54, 3.04, 3.04, 3.47, 3.6, 2.8, 2.68, 4.77, 5.59, 6.32, 5.95, 3.76, 1.56, 0.0, 1.41, 3.84, 5.43, 4.56, 3.69, 1.52, 0.0, -0.67, -1.35, -3.07, -2.4, -1.55, -0.65, -0.65, -1.33, -1.66, -2.51, -4.09, -5.09, -6.06, -4.74, -3.79, -3.79, 0.57, 0.51, 0.51, 0.0, 0.0, 0.0, 0.0, 0.0, -0.57, -0.57, -1.11, -1.11, -1.76, -1.76, -1.76, -1.73, -1.7, -1.67, -1.65, -1.63, -1.16, -1.2, -0.56, 0.0, 0.0, 0.0, 0.56, 0.56, 0.58, 0.58, 0.58, 0.56, 0.0, 0.0, 0.0, 0.8, 2.23, 2.86, 2.2, 0.0, 0.0, 0.0, 0.0, 1.9, 1.9, 3.13, 4.02, 3.58, 2.68, 2.68, -0.0, 0.0, 0.0, 0.0, 0.0, 0.0, -1.6, -1.74, 0.0, 2.6, 2.24, 2.68, 2.68, 2.68, 1.2, 0.8, 0.8, 2.24, 3.47, 4.89, 2.9, 0.69, 0.0, -0.75, -0.67, 2.53, 7.42, 7.64, 6.88, 6.14, 5.38, 3.8, 2.35, 0.0, -1.49, -4.4, -3.72, -2.3, -2.07, -2.3, -2.4, -2.84, -3.16, -3.38, -4.29, -4.07, -3.43, -3.43, 0.57, 0.57, 0.57, 0.57, 0.0, 0.0, 0.0, 0.0, -0.57, -0.57, -0.57, -1.23, -1.23, -1.23, -1.57, -1.73, -1.7, -1.84, -1.67, -1.76, -1.18, -1.14, -0.56, 0.0, 0.0, 0.0, 0.0, 0.0, 0.0, 0.0, 0.0, 0.0, 0.0, 0.0, 0.0, 0.57, 1.24, 1.13, 0.0, 0.0, -1.13, 0.0, 0.0, 0.63, 1.58, 3.13, 3.58, 3.13, 3.13, 3.13, 2.68, 2.24, 1.58, 1.4, 1.4, 0.0, 0.0, 0.0, 2.84, 4.24, 3.82, 2.53, 2.53, 1.4, 1.9, 0.45, 0.0, 0.63, 1.2, 1.14, 0.0, -3.69, -4.5, -4.37, 0.0, 5.77, 10.01, 9.9, 9.1, 7.73, 6.97, 5.95, 4.71, 3.4, 0.76, -1.7, -4.4, -3.83, -3.79, -3.9, -3.38, -2.15, -1.88, -3.43, -4.29, -3.64, -2.73, -2.73, 0.57, 0.57, 0.57, 0.57, 0.0, 0.0, 0.0, 0.0, 0.0, -0.55, -0.55, -0.55, -1.08, -1.08, -1.08, -1.19, -1.7, -1.7, -1.14, -1.12, -1.18, -1.16, -1.14, 0.0, 0.0, 0.0, -0.56, -0.56, -0.59, -1.16, -1.16, -0.56, 0.0, 0.0, -0.59, 0.0, 0.0, -0.87, -1.14, -0.76, -0.6, 0.0, 0.0, 0.0, 1.9, 3.2, 3.39, 3.2, 2.8, 2.8, 3.2, 2.53, 2.53, 2.84, 2.23, 1.27, 1.41, 3.48, 3.72, 3.35, 2.84, 2.23, 1.27, 1.27, 1.13, 1.26, 1.2, -0.45, -2.54, -4.46, -3.29, -3.07, -3.06, -1.41, 2.21, 6.51, 8.05, 8.46, 7.93, 6.9, 5.51, 4.5, 3.11, 1.36, 0.0, -1.79, -2.68, -4.15, -4.46, -3.79, -3.07, -2.15, -2.84, -4.11, -3.9, -2.98, -2.98, -2.98, 1.11, 0.57, 0.57, 0.57, 0.63, 0.0, 0.0, 0.0, 0.0, 0.0, -0.55, -0.55, -0.55, -1.08, -1.08, -1.7, -1.19, -1.19, -0.54, -0.58, -1.18, -1.71, -1.73, -1.55, -0.8, -1.11, -1.2, -1.52, -1.52, -1.73, -1.71, -1.15, -0.58, 0.0, 0.0, -0.55, -1.63, -2.96, -2.2, -1.8, -0.57, 0.0, 0.0, 1.4, 2.84, 2.84, 3.72, 2.84, 2.84, 2.53, 2.53, 2.84, 2.84, 2.84, 3.16, 3.48, 2.73, 2.73, 2.73, 2.73, 1.41, 1.41, 1.27, 0.57, 1.26, 1.79, 1.34, 0.0, -2.84, -4.46, -1.07, 1.57, 2.37, 3.07, 3.85, 3.09, 1.52, 0.78, 1.5, 2.25, 0.74, 0.0, 0.0, 0.0, 0.0, -1.86, -2.24, -1.7, -2.6, -2.0, -1.9, -2.15, -3.79, -4.46, -4.11, -2.98, -3.07, -3.07, 1.23, 1.23, 0.63, 0.55, 0.55, 0.55, 0.0, 0.0, 0.0, 0.0, 0.0, -0.55, -0.55, -0.61, -1.19, -1.19, -1.19, -1.08, -0.81, -0.82, -1.55, -2.29, -2.8, -3.2, -3.27, -2.31, -2.4, -2.37, -2.33, -1.69, -1.14, -0.57, -0.56, 0.0, 0.0, -0.57, -1.14, -1.69, -1.81, -1.18, -0.58, 0.0, 0.0, 1.16, 1.7, 2.4, 2.2, 2.2, 2.73, 2.23, 2.53, 2.53, 2.84, 3.72, 2.23, 2.21, 4.43, 1.88, 0.71, 1.08, 0.0, 0.0, 0.0, 0.0, 1.34, 2.12, 1.7, 1.34, 0.87, 1.55, 3.16, 5.41, 5.51, 3.95, 0.77, -2.33, -4.68, -6.09, -3.87, -2.25, -1.55, -0.77, -1.56, -1.58, -0.76, -0.61, 0.0, 0.71, 0.0, 0.0, -1.24, -2.3, -4.01, -3.48, -3.84, -3.79, -3.35, -3.35, 1.08, 1.08, 1.08, 0.55, 0.55, 0.55, 0.55, 0.0, 0.0, 0.0, 0.0, 0.0, -0.61, -0.54, -0.54, -1.16, -1.07, -1.73, -2.4, -2.35, -2.51, -2.16, -2.36, -2.77, -3.37, -2.83, -1.75, -1.67, -1.14, -0.57, 0.0, 0.0, 0.0, 0.0, 0.0, 0.0, 0.0, -0.54, -0.57, -0.54, -0.55, 0.0, 0.0, 1.1, 1.65, 1.98, 1.99, 2.4, 2.4, 2.2, 1.27, 1.6, 2.53, 3.35, 4.09, 2.5, 4.19, 3.48, 2.2, 0.0, 0.0, 0.0, 0.0, 1.58, 1.79, 1.7, 2.12, 3.58, 4.8, 5.77, 7.27, 7.93, 7.11, 3.92, -1.54, -7.2, -12.4, -12.11, -10.04, -7.13, -4.0, -2.39, -1.54, -0.69, 0.0, 0.0, 0.61, 1.49, 1.36, 0.63, -0.73, -2.88, -3.11, -2.73, -3.14, -2.84, -2.51, -2.51, 1.08, 1.08, 1.08, 1.08, 0.55, 0.61, 0.61, 0.61, 0.0, 0.0, 0.0, 0.0, 0.0, -0.54, -0.59, -1.16, -1.16, -1.84, -2.32, -2.96, -2.26, -1.8, -1.67, -2.29, -2.37, -2.3, -1.73, -1.16, -0.56, 0.0, 0.0, 0.0, 0.0, 0.0, 0.0, 0.0, 0.0, 0.0, 0.0, 0.0, 0.0, 0.0, 0.56, 1.1, 1.76, 2.32, 2.32, 1.3, 1.19, 1.19, 1.41, 1.13, 2.53, 3.82, 3.72, 4.8, 4.93, 6.0, 4.43, 0.0, -1.2, -1.2, 0.0, 1.79, 2.68, 3.04, 3.51, 3.13, 4.47, 6.26, 8.17, 10.02, 9.55, 5.51, -6.68, -11.94, -14.82, -15.39, -14.24, -12.07, -8.56, -4.94, -2.37, -0.76, 0.0, 0.0, 0.0, 0.0, 0.0, 0.0, -2.06, -3.4, -3.47, -2.88, -1.88, -1.9, -1.88, -1.88, 1.08, 1.08, 1.19, 1.19, 1.19, 0.61, 0.61, 0.54, 0.54, 0.0, 0.0, 0.0, 0.0, 0.0, -0.59, -0.53, -1.14, -1.14, -1.65, -2.12, -1.73, -1.73, -1.63, -1.73, -1.71, -1.67, -1.65, -1.16, -1.16, -0.59, -0.59, 0.0, 0.0, 0.0, 0.0, 0.0, 0.0, 0.0, 0.56, 0.56, 0.57, 0.55, 1.1, 1.2, 1.65, 2.16, 1.23, 1.19, 1.08, 1.19, 2.0, 2.23, 2.84, 3.82, 4.24, 4.77, 4.02, 5.16, 4.89, 1.49, -1.34, -1.34, 0.0, 2.24, 4.02, 4.41, 4.47, 2.68, 2.24, 3.04, 1.9, 3.35, 3.79, 2.02, -1.34, -7.6, -11.58, -13.86, -15.05, -14.75, -12.07, -8.56, -5.4, -3.76, -2.31, -1.47, -0.76, -1.55, -3.15, -2.97, -2.76, -3.4, -3.32, -1.84, -1.24, -1.24, -1.4, -1.4, 1.19, 1.19, 1.19, 1.19, 1.19, 1.19, 0.54, 0.54, 0.54, 0.0, 0.0, 0.0, 0.0, 0.0, 0.0, -0.58, -0.58, -1.23, -1.65, -1.76, -1.73, -1.73, -1.73, -1.71, -1.81, -1.78, -1.75, -1.11, -1.16, -1.16, -0.56, -0.59, 0.0, 0.0, 0.0, 0.0, 0.0, 0.59, 0.59, 1.11, 1.12, 1.16, 1.18, 1.1, 1.65, 1.14, 0.0, 0.0, 1.19, 2.4, 2.4, 2.2, 2.48, 2.84, 3.82, 4.47, 2.24, 2.24, 2.53, 2.99, 0.0, -0.95, 0.6, 3.51, 4.41, 5.36, 4.92, 5.7, 3.58, 2.12, -0.0, -3.21, 0.0, 1.6, 2.04, -0.95, -6.26, -8.67, -10.8, -13.6, -13.99, -11.44, -9.13, -7.73, -6.09, -4.71, -3.7, -3.8, -3.69, -0.76, -2.31, -1.27, -1.2, -1.26, -0.95, -1.24, -1.4, -1.4, 1.73, 1.73, 1.73, 1.19, 1.19, 1.19, 1.07, 0.54, 0.59, 0.59, 0.0, 0.0, 0.0, 0.0, 0.0, -0.58, -0.58, -1.12, -1.12, -1.1, -1.73, -1.73, -1.73, -1.71, -1.71, -1.69, -1.12, -1.11, -1.11, -1.11, -0.56, -0.56, -0.56, 0.0, 0.0, 0.0, 0.0, 0.0, 0.59, 1.16, 1.18, 1.14, 1.16, 1.18, 0.56, 0.56, 0.0, 0.57, 1.14, 1.12, 1.65, 2.12, 2.2, 2.23, 2.53, 3.39, 3.58, 1.34, 0.95, 0.79, 0.0, -0.4, 0.95, 3.51, 4.92, 4.92, 4.92, 5.36, 4.92, 0.0, -3.22, -4.2, -1.11, 2.36, 3.89, 3.79, 1.4, -1.16, -6.4, -9.6, -12.66, -12.59, -11.45, -9.8, -7.73, -5.38, -4.46, -3.55, -1.16, 1.9, 2.84, 1.27, 0.0, -0.57, -1.49, -1.58, -1.24, -1.24, 1.73, 1.73, 1.73, 1.73, 1.19, 1.07, 1.07, 1.16, 0.59, 0.59, 0.59, 0.0, 0.0, 0.0, 0.0, 0.0, -0.53, -0.57, -0.61, -1.1, -1.18, -1.73, -1.73, -1.61, -1.71, -1.69, -1.2, -1.12, -1.18, -1.18, -1.18, -0.59, -0.59, -0.56, 0.0, 0.0, 0.0, 0.0, 0.0, 0.55, 1.16, 1.18, 1.2, 0.54, 0.58, 0.0, 0.0, 0.56, 0.56, 1.1, 1.18, 1.2, 1.03, 1.08, 2.23, 2.53, 2.8, 1.58, 0.0, 0.0, 0.0, 0.0, 1.26, 3.58, 4.02, 4.02, 4.47, 4.47, 3.13, 0.63, -1.58, -3.4, -0.8, 0.81, 3.89, 7.0, 7.22, 2.09, -3.55, -7.89, -11.62, -12.5, -12.05, -9.83, -7.59, -5.49, -3.69, -2.2, 0.54, 2.4, 2.21, 3.69, 2.06, 0.0, -1.86, -1.79, -0.4, -0.4, 1.73, 1.73, 1.73, 1.55, 1.55, 1.07, 1.16, 1.16, 1.16, 0.59, 0.53, 0.0, 0.0, 0.0, 0.0, 0.0, 0.0, -0.57, -0.61, -0.56, -1.18, -1.18, -1.18, -1.18, -1.71, -1.16, -1.14, -1.12, -1.12, -1.12, -1.12, -0.56, -0.56, -0.56, -0.56, -0.56, 0.0, 0.0, 0.0, 0.0, 0.0, 0.0, 0.56, 0.56, 0.56, 0.0, 0.0, 0.0, 0.0, 0.56, 0.59, 0.59, 0.0, 0.0, 0.0, 0.71, 1.4, 1.9, 0.63, 0.0, 0.0, 0.0, 0.98, 2.8, 5.81, 3.95, 3.51, 1.79, 1.34, 0.6, -0.76, -2.47, -2.39, -0.78, 3.01, 5.56, 5.47, 3.59, -1.56, -7.71, -11.18, -12.54, -12.33, -9.84, -8.59, -6.92, -5.38, -2.2, 0.65, 1.24, 0.0, 0.0, 2.28, 0.78, -0.99, -1.34, 0.0, 0.0, 1.73, 1.73, 1.55, 1.7, 1.7, 1.7, 1.16, 1.16, 1.16, 0.53, 0.58, 0.58, 0.0, 0.0, 0.0, 0.0, 0.0, 0.0, -0.56, -0.56, -0.59, -1.18, -1.18, -1.18, -1.09, -1.16, -1.16, -1.14, -1.14, -0.57, -0.56, -0.56, -0.56, -0.61, -0.57, -0.57, -0.57, -0.56, 0.0, 0.0, 0.0, 0.0, 0.56, 0.56, 1.18, 1.18, 0.0, 0.0, 0.0, 0.0, 0.0, 0.0, 0.0, 0.0, 0.0, 0.0, 0.0, 0.0, 0.63, 0.45, 0.0, 0.0, 0.65, 2.4, 3.95, 6.14, 3.47, 1.6, 0.0, 0.0, 0.0, -1.52, -3.06, -3.21, -1.5, -0.74, -0.79, 0.0, 0.0, -3.74, -9.81, -13.02, -12.95, -10.79, -9.21, -8.59, -6.32, -2.0, -0.61, 0.0, -0.61, -1.41, 0.0, 1.36, 0.0, 0.0, 0.0, 0.0, 1.73, 1.73, 1.7, 1.7, 1.7, 1.7, 1.7, 1.16, 1.16, 1.05, 0.58, 0.58, 0.58, 0.0, 0.0, 0.0, 0.0, 0.0, 0.0, -0.56, -0.59, -0.59, -0.59, -0.59, -1.09, -0.55, -0.58, -0.58, -0.57, -0.57, -0.57, -0.57, -0.57, -0.57, -0.57, -0.57, -0.57, -0.57, 0.0, 0.0, 0.0, 0.0, 0.0, 0.0, 0.8, 1.78, 0.56, -1.18, -1.8, -1.1, -1.18, -1.18, -0.56, -0.57, 0.0, 0.0, 0.0, 0.0, 0.0, 0.0, 0.0, 0.0, 0.0, 2.12, 3.13, 4.41, 4.66, 2.8, 0.6, 0.0, 0.0, -0.79, -1.5, -4.5, -7.54, -9.17, -7.91, -4.52, -0.74, -0.61, -4.92, -12.64, -13.71, -12.42, -9.21, -6.98, -5.06, -3.07, -2.98, -2.98, -2.07, -1.33, -0.61, 0.0, 1.44, 1.3, 1.13, 1.13, 1.7, 1.7, 1.7, 1.7, 1.7, 1.7, 1.7, 1.16, 1.16, 1.14, 1.14, 0.58, 0.58, 0.0, 0.0, 0.0, 0.0, 0.0, 0.0, 0.0, -0.59, -0.59, -0.59, -0.59, -0.59, -0.55, -0.58, -0.58, -0.54, -0.57, -0.57, -0.57, -0.57, -0.57, -1.14, -0.57, -0.54, -0.58, -0.54, 0.0, 0.0, 0.0, 0.0, 0.0, 0.0, 0.8, 0.0, -1.1, -1.73, -1.76, -1.7, -1.67, -1.63, -1.12, -0.58, -0.54, -0.57, -0.59, 0.0, 0.0, 0.0, -0.54, 0.0, 1.79, 2.24, 2.68, 3.13, 2.6, 1.4, -0.65, -2.3, -1.45, 0.0, -1.57, -7.11, -10.21, -10.21, -7.69, -3.82, 0.0, -1.88, -10.13, -12.6, -12.42, -10.51, -6.98, -4.74, -4.43, -4.36, -3.43, -1.4, 0.0, 1.35, 0.0, 1.36, 2.75, 2.82, 2.82, 1.7, 1.7, 1.7, 1.7, 1.7, 1.7, 1.7, 1.7, 1.05, 1.14, 1.14, 1.14, 0.53, 0.57, 0.0, 0.0, 0.0, 0.0, 0.0, 0.0, 0.0, 0.0, 0.0, -0.59, -0.59, -0.55, -0.55, -0.58, -0.58, -0.57, -1.14, -1.14, -1.14, -1.14, -1.14, -1.07, -0.58, -0.58, -0.58, -0.58, -0.58, 0.0, 0.0, 0.0, -0.57, -1.58, -1.52, -0.56, -0.55, -0.57, -0.55, -1.07, -1.16, -1.67, -1.16, -0.61, -0.55, -0.57, -0.59, 0.0, -0.57, -0.57, 0.0, 1.2, 1.34, 1.79, 1.2, 0.95, 0.0, -1.14, -2.15, -0.85, 0.0, 0.75, -0.79, -7.04, -9.31, -7.69, -6.09, -3.07, -2.1, -5.09, -9.21, -10.8, -10.79, -9.02, -7.55, -4.71, -3.43, -1.16, 0.0, 1.4, 1.94, 2.66, 2.12, 2.9, 3.33, 3.33, 1.7, 1.7, 1.7, 1.7, 1.7, 1.7, 1.7, 1.7, 1.14, 1.14, 1.14, 1.14, 0.57, 0.57, 0.57, 0.0, 0.0, 0.0, 0.0, 0.0, 0.0, 0.0, 0.0, 0.0, -0.59, -0.59, -0.55, -0.59, 0.0, -0.55, -1.16, -1.16, -1.16, -1.16, -1.16, -1.16, -1.16, -0.55, -0.55, -0.55, -0.55, -0.55, -0.58, -0.58, -1.16, -2.21, -2.33, -0.58, 0.0, 0.0, 0.0, 0.0, -0.53, -0.54, -0.61, -1.08, -0.57, -0.57, -0.59, -0.51, -0.57, 0.0, 0.6, 0.95, 1.2, 1.34, 0.45, -0.89, -1.4, -1.98, -0.54, 0.45, 0.0, 0.0, 0.8, -2.37, -7.0, -7.9, -6.79, -6.48, -4.23, -2.76, -3.55, -6.23, -7.51, -7.55, -7.59, -6.06, -2.98, -0.7, 0.61, 1.41, 2.11, 2.66, 2.9, 2.69, 2.9, 2.9, 1.7, 1.7, 1.7, 1.7, 1.7, 1.7, 1.7, 1.7, 1.14, 1.14, 1.14, 1.14, 1.12, 0.57, 0.57, 0.57, 0.0, 0.0, 0.0, 0.0, 0.0, 0.0, 0.0, 0.0, -0.59, -0.59, -0.59, -0.55, -1.09, -0.8, -1.18, -1.18, -1.18, -1.09, -1.09, -1.09, -1.09, -1.18, -0.59, -0.59, -0.59, -0.59, -0.55, -0.58, -0.57, -1.14, -1.14, -0.55, -0.56, -0.57, -0.57, 0.0, 0.0, -0.58, -0.59, 0.0, 0.0, -0.59, 0.0, 0.0, 0.0, 0.6, 1.9, 0.95, 1.2, 1.34, 0.89, 0.0, -1.24, -0.87, 0.65, 2.12, 0.0, -2.99, -2.43, -0.83, -2.35, -3.32, -3.39, -5.13, -4.24, -2.19, -1.38, -2.11, -3.49, -3.97, -4.16, -4.66, -2.35, 0.0, 0.7, 2.11, 2.2, 2.18, 2.17, 3.06, 2.69, 2.69, 1.7, 1.7, 1.7, 1.7, 1.7, 1.7, 1.7, 1.7, 1.67, 1.14, 1.14, 1.14, 1.12, 0.57, 0.57, 0.57, 0.57, 0.0, 0.0, 0.0, 0.0, 0.0, 0.0, 0.0, -0.59, -0.55, -0.55, -1.09, -1.16, -1.07, -1.16, -1.18, -1.18, -1.18, -1.18, -1.18, -1.18, -1.18, -1.1, -0.56, -0.56, -0.56, -0.59, -0.55, -0.57, -0.57, -0.58, -0.55, -0.56, -0.61, -1.2, -1.2, -0.61, -0.57, -0.57, 0.0, 0.0, 0.0, 0.0, 0.0, 0.0, 1.2, 1.9, 1.9, 1.2, 0.63, 0.89, 0.45, 0.0, 0.0, 1.24, 1.58, 0.0, -4.6, -6.05, -2.48, 0.8, 0.0, -1.26, -2.79, -3.61, -2.87, -2.12, -2.06, -1.38, -1.19, -1.13, -1.14, 0.0, 0.0, 1.45, 2.26, 2.18, 2.06, 1.43, 2.11, 2.11, 2.11, 1.7, 1.7, 1.7, 1.7, 1.7, 1.7, 1.7, 1.7, 1.67, 1.14, 1.14, 1.14, 1.12, 1.12, 0.57, 0.57, 0.57, 0.0, 0.0, 0.0, 0.0, 0.0, 0.0, 0.0, -0.59, -0.55, -0.55, -0.55, -1.16, -1.16, -1.16, -1.16, -1.09, -1.18, -1.18, -1.18, -1.18, -1.18, -1.1, -0.56, -0.56, -0.56, -0.56, 0.0, -0.54, -0.57, -0.58, -0.55, -0.56, -0.56, -1.2, -1.2, -1.12, -1.12, -0.57, -0.58, 0.0, 0.0, 0.0, 0.0, 0.61, 1.4, 1.2, 1.9, 1.9, 1.58, 0.63, 0.0, 0.0, 0.0, 0.95, 1.2, 0.0, -2.44, -3.87, -1.55, 3.11, 5.47, 3.04, 0.0, -4.32, -5.6, -4.94, -2.72, -0.71, 0.0, 0.0, 0.0, 0.0, 0.75, 1.52, 2.18, 2.35, 1.43, 0.7, 0.7, 1.39, 1.39, 1.7, 1.7, 1.7, 1.7, 1.7, 1.7, 1.7, 1.7, 1.67, 1.14, 1.14, 1.14, 1.12, 1.12, 0.57, 0.57, 0.57, 0.0, 0.0, 0.0, 0.0, 0.0, 0.0, 0.0, -0.55, -0.55, -0.55, -0.55, -1.16, -1.16, -1.16, -1.16, -1.09, -1.09, -1.18, -1.18, -1.18, -1.1, -1.1, -1.1, -0.61, -0.57, 0.0, 0.0, 0.0, -0.57, -0.58, -0.55, -1.1, -1.1, -1.2, -1.12, -1.23, -1.14, -0.58, -0.53, 0.0, 0.0, 0.0, 0.0, 0.0, 0.59, 1.4, 0.6, 0.6, 1.4, 0.6, 0.63, 0.0, 0.0, 0.0, 1.58, 0.96, 0.0, -0.77, -0.78, 0.8, 3.14, 3.13, 0.0, -3.55, -5.63, -4.73, -1.98, 0.0, 0.71, 0.7, 0.73, 0.72, 0.74, 1.44, 1.49, 1.52, 0.78, 0.7, 0.73, 0.7, 0.7, 1.7, 1.7, 1.7, 1.7, 1.7, 1.7, 1.7, 1.7, 1.67, 1.14, 1.14, 1.14, 1.14, 1.12, 0.57, 0.57, 0.57, 0.0, 0.0, 0.0, 0.0, 0.0, 0.0, 0.0, -0.55, -0.55, -0.55, -0.55, -1.16, -1.16, -1.16, -1.16, -1.09, -1.18, -1.18, -1.18, -1.18, -1.1, -1.1, -1.2, -0.57, -0.57, 0.0, 0.0, 0.0, 0.0, -0.58, -1.18, -1.1, -1.1, -1.12, -1.23, -1.14, -1.14, -1.14, -0.59, -0.54, 0.0, 0.0, 0.0, 0.0, 0.0, 0.0, 0.6, 0.6, 1.2, 0.6, 0.63, 0.0, 0.0, -0.0, 1.34, 1.9, 2.1, 0.0, -2.35, -2.28, -2.28, -2.4, -3.01, -2.16, -1.38, -1.45, -0.53, 0.0, 0.0, 0.0, 0.74, 0.74, 0.77, 0.73, 0.69, 0.73, 0.78, 0.0, 0.0, 0.0, 0.0, 1.7, 1.7, 1.7, 1.7, 1.7, 1.7, 1.7, 1.7, 1.67, 1.14, 1.14, 1.14, 1.14, 1.14, 0.57, 0.57, 0.57, 0.0, 0.0, 0.0, 0.0, 0.0, 0.0, 0.0, -0.55, -0.55, -0.55, -0.55, -1.09, -1.16, -1.16, -1.09, -1.09, -1.18, -1.18, -1.18, -1.1, -1.2, -1.12, -1.12, -0.57, -0.58, -0.53, 0.0, 0.59, 0.0, -0.58, -1.18, -1.2, -1.2, -1.12, -1.14, -1.14, -1.26, -1.16, -1.16, -0.54, -0.55, 0.0, 0.0, 0.0, 0.0, 0.0, 0.0, 0.0, 0.0, 0.0, 0.0, 0.0, 0.0, -0.0, 0.63, 0.8, 0.75, 0.0, -0.76, -2.28, -4.71, -5.72, -5.05, -1.46, 0.0, 0.0, -0.65, -0.63, 0.0, 0.0, 0.71, 0.71, 0.71, 0.71, 0.77, 0.71, 0.0, 0.0, 0.0, 0.0, 0.0, 1.7, 1.7, 1.7, 1.7, 1.7, 1.7, 1.7, 1.7, 1.67, 1.14, 1.14, 1.14, 1.14, 1.14, 0.57, 0.57, 0.57, 0.57, 0.0, 0.0, 0.0, 0.0, 0.0, 0.0, -0.59, -0.55, -0.55, -0.55, -1.09, -1.09, -1.09, -1.09, -1.09, -1.18, -1.73, -1.63, -1.2, -1.12, -1.12, -1.23, -1.14, -0.58, -0.59, -0.59, 0.0, 0.0, -1.14, -1.2, -1.14, -1.14, -1.14, -1.14, -1.26, -1.84, -1.84, -1.16, -1.07, -0.55, -0.57, -0.57, -0.57, -0.57, -0.61, 0.0, 0.0, 0.0, 0.0, 0.0, -0.63, 0.0, 0.0, -0.0, 0.0, 0.0, 1.08, 3.13, 0.78, -2.32, -4.75, -4.3, -2.12, 0.0, 0.0, 0.0, 0.0, 0.0, 0.0, 0.0, 0.73, 0.74, 0.69, 0.0, 0.0, 0.0, 0.0, -0.79, -0.7, 0.0, 1.7, 1.7, 1.7, 1.7, 1.7, 1.7, 1.7, 1.7, 1.14, 1.14, 1.14, 1.14, 1.14, 0.58, 0.57, 0.57, 0.57, 0.0, 0.0, 0.0, 0.0, 0.0, 0.0, 0.0, -0.59, -0.59, -0.59, -0.55, -1.09, -1.09, -1.09, -1.09, -1.09, -1.73, -1.73, -1.63, -1.76, -1.12, -1.14, -1.14, -1.14, -1.14, -1.14, -1.16, -1.8, -1.67, -0.58, -0.58, 0.0, 0.0, 0.0, -0.59, -0.59, -1.16, -1.16, -1.16, -0.61, -0.55, -0.57, -0.57, -0.63, -1.11, -1.13, 0.0, 0.0, 0.0, 0.0, 0.0, -0.63, 0.0, 0.0, 0.0, -0.95, -0.8, 0.0, 3.36, 3.14, 0.77, -1.56, -3.02, -2.12, -0.65, 0.0, 0.0, 0.0, 0.0, 0.0, 0.0, 0.0, 0.0, 0.0, 0.0, 0.0, 0.0, -0.74, -0.76, -1.5, -1.5, 1.7, 1.7, 1.7, 1.7, 1.7, 1.7, 1.7, 1.7, 1.16, 1.14, 1.14, 1.14, 1.14, 0.58, 0.57, 0.57, 0.57, 0.0, 0.0, 0.0, 0.0, 0.0, 0.0, 0.0, -0.59, -0.59, -0.59, -0.59, -1.18, -1.09, -1.09, -1.09, -1.61, -1.73, -1.63, -1.76, -1.12, -1.23, -1.14, -1.14, -1.14, -1.14, -1.14, -1.23, -2.29, -2.4, -0.59, 0.0, 0.0, 0.0, 0.0, 0.0, 0.0, -0.54, -0.54, -0.61, -0.55, 0.0, -0.57, -0.57, -0.57, -1.23, -1.13, -1.13, 0.0, 0.0, 0.0, 0.0, -0.63, 0.0, 0.0, -0.45, -1.34, -1.6, -2.21, -2.28, 0.0, 1.59, 1.55, 0.0, -0.66, 0.0, 0.0, 0.69, 0.72, 0.0, 0.0, 0.0, 0.0, 0.0, 0.0, -0.74, -0.74, -1.6, -1.48, -1.56, -1.56, -1.56, 1.7, 1.7, 1.7, 1.7, 1.7, 1.7, 1.7, 1.7, 1.16, 1.14, 1.14, 1.14, 1.14, 0.58, 0.53, 0.57, 0.57, 0.0, 0.0, 0.0, 0.0, 0.0, 0.0, 0.0, -0.59, -0.59, -0.59, -0.59, -1.18, -1.18, -1.09, -1.09, -1.73, -1.73, -1.63, -1.65, -1.23, -1.14, -1.14, -1.14, -1.14, -1.14, -1.14, -1.12, -1.76, -1.63, -1.2, -0.57, -0.57, 0.0, 0.0, 0.0, 0.0, 0.0, 0.0, 0.0, 0.0, 0.0, 0.0, 0.0, -0.57, -0.63, -1.27, -1.27, -1.4, 0.0, 0.0, 0.0, 0.0, 0.45, 0.0, -0.89, -1.79, -2.23, -4.46, -4.56, -2.37, 0.78, 4.8, 4.7, 3.78, 3.6, 2.18, 0.69, 0.0, 0.0, 0.0, -0.71, -1.48, -1.48, -1.54, -1.44, -2.22, -2.31, -2.28, -2.25, -2.25, -2.25, 1.7, 1.7, 1.7, 1.7, 1.7, 1.7, 1.7, 1.7, 1.16, 1.16, 1.14, 1.14, 0.58, 0.58, 0.53, 0.57, 0.0, 0.0, 0.0, 0.0, 0.0, 0.0, 0.0, -0.59, -0.59, -0.59, -0.59, -1.18, -1.18, -1.18, -1.18, -1.73, -1.73, -1.63, -1.76, -1.12, -1.14, -1.14, -1.05, -1.05, -1.14, -1.14, -1.14, -1.12, -1.2, -1.2, -1.12, -0.57, -0.57, -0.57, -0.57, 0.0, 0.0, 0.0, 0.0, 0.0, 0.0, 0.0, 0.0, 0.0, 0.0, 0.0, -0.63, -1.27, -1.27, 0.0, 0.0, 0.57, 0.6, 0.63, 0.0, -2.0, -2.97, -3.2, -3.16, -2.3, -0.79, 0.78, 3.12, 7.0, 9.63, 9.69, 6.58, 2.79, 0.0, -0.71, -1.36, -2.28, -2.99, -2.95, -3.06, -2.88, -3.11, -3.11, -2.99, -3.16, -3.16, -3.16, 1.88, 1.88, 1.7, 1.7, 1.7, 1.7, 1.7, 1.16, 1.16, 1.16, 1.05, 1.14, 0.58, 0.58, 0.58, 0.57, 0.0, 0.0, 0.0, 0.0, 0.0, 0.0, 0.0, -0.59, -0.59, -0.59, -0.59, -1.18, -1.18, -1.18, -1.18, -1.73, -1.73, -1.76, -1.12, -1.14, -1.14, -1.05, -1.16, -1.16, -1.05, -1.14, -1.14, -1.12, -1.2, -1.12, -1.12, -1.12, -1.23, -1.12, -1.12, -1.12, -0.57, -0.58, -0.59, -0.61, -0.55, -0.55, 0.0, 0.0, 0.0, 0.0, -0.57, -0.57, 0.0, 0.0, 0.0, 0.0, 0.0, 0.4, -1.26, -2.0, -2.54, -2.98, -0.8, 0.0, 0.0, 0.0, 2.25, 6.4, 10.21, 11.04, 8.94, 5.84, 2.8, 0.0, -1.42, -3.47, -3.76, -5.0, -4.36, -3.95, -4.01, -3.76, -3.85, -3.95, -3.95, -3.95, 1.88, 1.88, 1.88, 1.7, 1.73, 1.7, 1.7, 1.16, 1.16, 1.16, 1.05, 0.58, 0.58, 0.58, 0.58, 0.0, 0.0, 0.0, 0.0, 0.0, 0.0, 0.0, 0.0, -0.56, -0.59, -0.59, -1.18, -1.18, -1.18, -1.18, -1.18, -1.73, -1.63, -1.2, -1.12, -1.14, -1.14, -1.16, -1.16, -1.16, -1.05, -1.14, -1.14, -1.12, -1.12, -1.12, -1.12, -1.23, -1.14, -1.23, -1.12, -1.12, -1.12, -0.58, -0.59, -0.54, -0.61, -0.55, -0.55, -0.55, -0.63, -0.57, -0.57, 0.0, 0.0, 0.0, 0.0, 0.0, 0.0, 0.0, -0.63, -1.79, -1.79, -1.58, 0.0, 0.0, 0.0, 0.79, 4.07, 6.31, 7.79, 7.77, 8.07, 8.17, 7.06, 3.57, 0.0, -3.47, -4.68, -5.13, -4.6, -4.5, -4.71, -4.4, -4.4, -4.2, -4.2, -4.2, 1.73, 1.73, 1.73, 1.73, 1.73, 1.73, 1.55, 1.16, 1.16, 1.16, 1.05, 0.58, 0.58, 0.58, 0.58, 0.0, 0.0, 0.0, 0.0, 0.0, 0.0, 0.0, -0.56, -0.56, -0.59, -0.59, -1.18, -1.18, -1.18, -1.18, -1.18, -1.1, -1.2, -1.12, -1.14, -1.14, -1.16, -1.16, -1.16, -1.16, -1.16, -1.14, -1.14, -1.23, -1.12, -1.12, -1.12, -1.23, -1.14, -1.14, -1.23, -1.65, -1.23, -1.14, -1.16, -1.07, -1.19, -1.19, -1.08, -1.23, -0.63, -0.57, -0.57, 0.0, 0.0, 0.0, 0.0, 0.0, 0.0, 0.0, 0.0, -0.89, -1.79, -1.34, 0.0, 0.0, 0.76, 2.76, 4.95, 5.94, 5.41, 5.67, 8.02, 10.29, 9.6, 5.84, 1.39, -1.41, -4.22, -5.0, -5.3, -5.21, -5.38, -5.38, -5.04, -5.04, -5.04, -5.04, 1.73, 1.73, 1.73, 1.73, 1.73, 1.73, 1.07, 1.07, 1.16, 1.16, 1.16, 0.53, 0.58, 0.58, 0.0, 0.0, 0.0, 0.0, 0.0, 0.0, 0.0, -0.56, -0.56, -0.56, -0.56, -0.59, -1.18, -1.18, -1.18, -1.18, -1.1, -1.2, -1.12, -1.23, -1.14, -1.14, -1.16, -1.16, -1.16, -1.16, -1.16, -1.14, -1.14, -1.14, -1.12, -1.12, -1.12, -1.23, -1.14, -1.14, -1.23, -1.8, -1.8, -1.67, -1.16, -1.19, -1.73, -1.73, -1.73, -1.23, -1.23, -1.11, -1.11, -0.59, -0.53, -1.2, -1.0, 0.0, 0.0, 0.0, 0.0, 0.0, -1.79, -1.79, -1.34, 0.0, 1.26, 2.54, 4.4, 4.65, 3.88, 4.75, 7.71, 9.42, 8.34, 5.14, 0.0, -2.06, -2.48, -3.15, -4.74, -5.37, -6.01, -6.24, -5.86, -5.59, -5.59, -5.59, 1.73, 1.73, 1.73, 1.73, 1.73, 1.19, 1.19, 1.07, 1.16, 1.16, 0.59, 0.53, 0.58, 0.58, 0.0, 0.0, 0.0, 0.0, 0.0, 0.0, 0.0, -0.56, -0.56, -0.56, -0.56, -0.56, -1.1, -1.1, -1.1, -1.1, -1.2, -1.2, -1.12, -1.14, -1.14, -1.16, -1.16, -1.16, -1.16, -1.16, -1.16, -1.14, -1.14, -1.14, -1.23, -1.12, -1.12, -1.23, -1.14, -1.14, -1.67, -1.8, -1.8, -1.7, -1.88, -1.73, -1.73, -1.73, -1.73, -1.76, -1.76, -1.11, -1.27, -1.13, -1.16, -1.49, -2.0, -1.6, 0.0, 0.0, 0.0, 0.0, 0.0, -0.89, -0.89, 0.0, 0.45, 1.79, 2.54, 3.07, 3.09, 3.7, 4.8, 5.67, 4.72, 1.44, 0.0, -0.69, -2.15, -2.15, -2.73, -4.75, -5.72, -5.37, -5.37, -3.72, -3.72, -3.72, 1.73, 1.73, 1.73, 1.73, 1.19, 1.19, 1.19, 1.07, 1.16, 0.59, 0.59, 0.53, 0.53, 0.0, 0.0, 0.0, 0.0, 0.0, 0.0, 0.0, 0.0, -0.61, -0.56, -0.56, -0.56, -0.56, -1.1, -1.1, -1.1, -1.2, -1.2, -1.12, -1.12, -1.14, -1.14, -1.16, -1.16, -1.16, -1.16, -1.16, -1.16, -1.14, -1.14, -1.14, -1.14, -1.23, -1.12, -1.23, -1.14, -1.67, -1.67, -1.8, -1.67, -1.7, -1.88, -1.73, -1.73, -1.73, -1.94, -1.76, -1.76, -1.76, -1.8, -1.84, -1.84, -1.61, -2.4, -2.68, -1.79, -1.79, -1.34, -0.45, 0.0, -0.63, -0.89, -0.63, 0.0, 1.34, 1.6, 1.49, 2.11, 2.51, 2.31, 2.31, 0.0, 0.0, 0.0, 0.0, -1.61, -2.15, -1.33, -2.66, -3.49, -3.45, -2.5, -1.26, -1.26, -1.26, 1.73, 1.73, 1.73, 1.19, 1.19, 1.19, 1.19, 1.07, 1.07, 0.59, 0.59, 0.59, 0.53, 0.0, 0.0, 0.0, 0.0, 0.0, 0.0, 0.0, 0.0, -0.57, -0.61, -0.61, -0.56, -0.56, -0.56, -1.1, -1.2, -1.2, -1.12, -1.12, -1.23, -1.14, -1.14, -1.16, -1.16, -1.16, -1.16, -1.16, -1.16, -1.16, -1.14, -1.14, -1.14, -1.14, -1.23, -1.23, -1.8, -1.67, -1.67, -1.67, -1.67, -1.7, -1.88, -2.2, -2.2, -2.2, -2.44, -2.22, -2.22, -2.22, -1.8, -1.8, -2.23, -2.53, -2.6, -3.47, -2.68, -3.04, -3.47, -2.68, -2.12, -2.0, -0.89, -0.89, -0.0, 0.89, 0.6, 0.57, 0.87, 1.6, 1.49, 0.0, 0.0, 0.0, 0.0, 0.0, -0.63, -1.9, -1.84, -2.04, -2.53, -2.17, -0.89, -0.0, -0.0, -0.0, 1.19, 1.19, 1.19, 1.19, 1.19, 1.19, 1.19, 1.07, 0.54, 0.59, 0.59, 0.59, 0.0, 0.0, 0.0, 0.0, 0.0, 0.0, 0.0, 0.0, 0.0, -0.57, -0.57, -0.57, -0.61, -0.61, -0.61, -1.2, -1.12, -1.12, -1.12, -1.12, -1.14, -1.14, -1.14, -1.16, -1.16, -1.16, -1.16, -1.16, -1.16, -1.16, -1.14, -1.14, -1.14, -1.14, -1.14, -1.8, -1.8, -1.67, -1.67, -1.84, -1.84, -1.7, -2.4, -2.2, -2.2, -2.2, -2.44, -2.22, -2.22, -2.22, -2.48, -2.23, -2.84, -3.14, -2.86, -3.07, -2.12, -2.68, -3.58, -4.41, -4.02, -3.13, -2.24, -0.89, -0.0, 0.0, 0.0, 0.0, 0.0, 0.73, 0.78, 0.78, 0.73, 0.71, 0.0, 0.0, -1.28, -2.53, -3.16, -2.8, -1.9, -1.7, -0.63, -0.0, -0.0, -0.0, 1.19, 1.19, 1.19, 1.19, 1.19, 1.19, 1.07, 0.54, 0.54, 0.59, 0.59, 0.0, 0.0, 0.0, 0.0, 0.0, 0.0, 0.0, 0.0, 0.0, 0.0, -0.57, -0.57, -0.57, -0.57, -0.57, -0.57, -0.57, -1.12, -1.12, -1.12, -1.23, -1.14, -1.14, -1.16, -1.16, -1.16, -1.16, -1.16, -1.16, -1.16, -1.16, -1.26, -1.14, -1.14, -1.14, -1.67, -1.67, -1.67, -1.67, -1.84, -1.7, -1.84, -1.7, -2.4, -2.2, -2.2, -2.44, -2.44, -2.44, -2.86, -2.86, -2.6, -2.86, -3.16, -2.84, -3.14, -2.68, -2.54, -1.7, -2.24, -1.7, -2.12, -3.04, -2.54, -2.24, -1.6, -1.79, -1.58, -0.71, -0.71, 0.0, 0.76, 1.57, 2.4, 1.6, 0.0, -0.8, -1.88, -3.49, -4.75, -2.73, -0.95, -1.26, -1.2, -0.89, -0.89, -0.89, 1.19, 1.19, 1.19, 1.19, 1.19, 0.61, 0.54, 0.54, 0.54, 0.54, 0.0, 0.0, 0.0, 0.0, 0.0, 0.0, 0.0, 0.0, 0.0, 0.0, -0.57, -0.57, -0.57, -0.57, -0.57, -0.57, -0.57, -0.57, -1.12, -1.12, -1.23, -1.14, -1.14, -1.14, -1.16, -1.16, -1.16, -1.16, -1.16, -1.16, -1.16, -1.16, -1.16, -1.14, -1.14, -1.14, -1.67, -1.14, -1.14, -1.14, -1.84, -1.7, -1.84, -2.18, -2.4, -2.2, -2.44, -2.86, -2.86, -2.86, -2.86, -2.86, -2.86, -2.86, -3.16, -3.43, -3.35, -3.07, -3.32, -1.6, -1.2, -0.45, -0.95, -1.58, -1.6, -1.79, -1.79, -2.68, -2.6, -2.23, -1.58, -1.55, -0.73, 0.0, 1.59, 1.56, 0.71, 0.0, -0.59, -2.63, -3.07, -1.7, 0.0, -1.2, -2.24, -1.79, -1.79, -1.79, 1.07, 1.07, 1.19, 1.07, 0.54, 0.54, 0.54, 0.54, 0.54, 0.0, 0.0, 0.0, 0.0, 0.0, 0.0, 0.0, 0.0, 0.0, 0.0, 0.0, -0.58, -0.57, -0.57, -0.57, -0.57, -0.57, -0.57, -0.57, -0.57, -1.23, -1.14, -1.14, -1.14, -1.05, -1.16, -1.16, -1.16, -1.16, -1.16, -1.16, -1.16, -1.16, -1.16, -1.16, -1.26, -1.14, -1.14, -1.14, -1.14, -1.14, -1.84, -1.7, -1.84, -2.18, -2.4, -2.2, -2.86, -2.86, -2.86, -3.49, -3.49, -3.49, -3.49, -3.48, -3.78, -3.78, -3.43, -3.72, -3.82, -3.47, -1.34, -0.89, -1.2, -1.86, -1.86, -1.79, -1.79, -2.68, -3.51, -3.2, -2.86, -2.79, -3.0, -2.34, -0.79, 0.0, 0.0, 0.71, 0.0, -0.42, -1.24, -0.95, -0.45, -0.89, -1.7, -2.17, -2.17, -2.17, 1.07, 1.07, 1.07, 0.54, 0.54, 0.54, 0.54, 0.54, 0.0, 0.0, 0.0, 0.0, 0.0, 0.0, 0.0, 0.0, 0.0, 0.0, 0.0, 0.0, -0.58, -0.58, -0.58, -0.58, -0.53, -0.57, -0.57, -0.57, -0.62, -1.14, -1.14, -1.14, -1.14, -1.16, -1.16, -1.16, -1.16, -1.16, -1.16, -1.16, -1.16, -1.16, -1.16, -1.16, -1.16, -1.16, -1.26, -1.14, -1.14, -1.14, -1.84, -1.7, -1.7, -2.18, -2.4, -2.2, -2.86, -2.86, -3.49, -3.49, -3.79, -4.11, -3.79, -3.79, -4.0, -4.0, -4.0, -4.27, -4.11, -3.95, -3.13, -1.79, -2.12, -2.4, -3.32, -3.13, -3.13, -2.6, -3.04, -3.04, -2.8, -3.16, -3.64, -3.95, -3.04, -1.62, 0.0, 0.0, 0.0, -0.0, -0.0, -0.0, -0.0, -0.0, -0.6, -1.26, -1.26, -1.26, 0.54, 0.54, 0.54, 0.54, 0.54, 0.54, 0.54, 0.0, 0.0, 0.0, 0.0, 0.0, 0.0, 0.0, 0.0, 0.0, 0.0, 0.0, 0.0, -0.58, -0.58, -0.58, -0.58, -0.58, -0.58, -0.58, -0.58, -0.58, -0.58, -1.14, -1.14, -1.14, -1.14, -1.16, -1.16, -1.16, -1.16, -1.16, -1.16, -1.16, -1.16, -1.16, -1.16, -1.16, -1.16, -1.16, -1.16, -1.16, -1.16, -1.84, -1.84, -1.7, -2.18, -2.18, -2.4, -2.4, -2.86, -3.12, -3.49, -3.49, -4.11, -4.11, -4.11, -3.79, -4.07, -4.37, -4.0, -4.0, -4.27, -3.82, -3.53, -2.24, -2.24, -2.17, -3.04, -3.95, -3.58, -2.24, -1.79, -2.24, -2.6, -3.22, -3.9, -4.71, -4.76, -3.18, -2.34, -0.69, 0.0, 0.0, 0.61, 0.53, 0.99, 0.95, 0.63, 0.0, 0.0, 0.0, 0.54, 0.54, 0.54, 0.54, 0.54, 0.54, 0.0, 0.0, 0.0, 0.0, 0.0, 0.0, 0.0, 0.0, 0.0, 0.0, 0.0, 0.0, -0.58, -0.58, -0.58, -0.58, -0.58, -0.58, -0.58, -0.58, -0.58, -0.58, -0.58, -1.14, -1.14, -1.14, -1.14, -1.16, -1.16, -1.16, -1.16, -1.16, -1.16, -1.7, -1.7, -1.7, -1.16, -1.16, -1.16, -1.16, -1.16, -1.16, -1.16, -1.84, -1.84, -2.18, -2.18, -2.18, -2.4, -2.84, -2.86, -3.49, -3.49, -4.11, -4.11, -4.37, -4.71, -4.37, -4.29, -4.55, -4.55, -4.55, -4.0, -4.11, -3.39, -3.04, -1.7, -2.68, -1.34, -2.24, -2.68, -1.79, -1.79, -2.24, -2.6, -3.84, -4.65, -5.28, -4.71, -3.83, -2.34, -0.8, 0.0, 0.0, 0.0, 0.54, 1.49, 1.79, 1.7, 1.49, 1.49, 1.49, 0.54, 0.54, 0.54, 0.54, 0.54, 0.0, 0.0, 0.0, 0.0, 0.0, 0.0, 0.0, 0.0, 0.0, 0.0, 0.0, 0.0, 0.0, -0.53, -0.53, -0.58, -0.58, -0.58, -0.58, -0.58, -0.58, -0.58, -0.58, -1.14, -1.14, -1.14, -1.14, -1.05, -1.16, -1.16, -1.16, -1.16, -1.7, -1.7, -1.7, -1.7, -1.7, -1.16, -1.16, -1.16, -1.16, -1.16, -1.16, -1.7, -1.84, -2.36, -2.18, -2.18, -2.36, -2.84, -2.84, -3.12, -3.49, -4.11, -4.11, -4.11, -4.71, -4.71, -4.71, -4.65, -4.55, -4.55, -4.55, -4.55, -4.4, -4.11, -3.39, -2.4, -1.58, -0.45, -1.34, -2.24, -2.24, -1.79, -2.68, -3.32, -4.84, -5.06, -5.38, -5.29, -3.75, -2.32, -0.78, 0.0, 0.0, 0.0, 0.0, 0.45, 1.7, 1.9, 1.88, 1.88, 1.88, 0.54, 0.54, 0.54, 0.54, 0.54, 0.0, 0.0, 0.0, 0.0, 0.0, 0.0, 0.0, 0.0, 0.0, 0.0, 0.0, 0.0, 0.0, -0.53, -0.53, -0.58, -0.58, -0.58, -0.58, -0.58, -0.58, -0.58, -0.58, -1.14, -1.14, -1.14, -1.14, -1.05, -1.16, -1.16, -1.16, -1.16, -1.7, -1.7, -1.7, -1.7, -1.7, -1.16, -1.16, -1.16, -1.16, -1.16, -1.16, -1.7, -1.84, -2.36, -2.18, -2.18, -2.36, -2.84, -2.84, -3.12, -3.49, -4.11, -4.11, -4.11, -4.71, -4.71, -4.71, -4.65, -4.55, -4.55, -4.55, -4.55, -4.4, -4.11, -3.39, -2.4, -1.58, -0.45, -1.34, -2.68, -2.24, -1.79, -2.68, -3.32, -4.46, -5.06, -5.38, -5.3, -4.55, -3.2, -1.5, 0.0, 0.0, 0.0, 0.0, 0.0, 0.57, 1.2, 1.33, 1.33, 1.33]}]